Wetterdaten: Sonntag, 01.02.2026
Datum Zeit Temp. Aussen Temp. o. S. Temp +5cm Feuchte Auss Luftdruck Regen Sonnenschein Regendauer Solar Windböen Empfang
01.02.2026 00:00 4,7 °C 3,9 °C 0,6 °C 93 % 1007,8 hPa 0,0 l/m² 0 min 0 min 0 W/m² 12,9 km/h (3 Bft) 100,00 %
01.02.2026 00:02 4,7 °C 3,9 °C 0,6 °C 93 % 1007,8 hPa 0,0 l/m² 0 min 0 min 0 W/m² 6,4 km/h (2 Bft) 6,25 %
01.02.2026 00:04 4,7 °C 3,9 °C 0,6 °C 93 % 1007,8 hPa 0,0 l/m² 0 min 0 min 0 W/m² 6,4 km/h (2 Bft) 28,57 %
01.02.2026 00:07 4,6 °C 3,9 °C 0,6 °C 94 % 1007,8 hPa 0,0 l/m² 0 min 0 min 0 W/m² 19,3 km/h (3 Bft) 28,57 %
01.02.2026 00:08 4,6 °C 3,9 °C 0,6 °C 94 % 1007,8 hPa 0,0 l/m² 0 min 0 min 0 W/m² 19,3 km/h (3 Bft) 97,98 %
01.02.2026 00:10 4,6 °C 3,9 °C 0,6 °C 94 % 1007,9 hPa 0,0 l/m² 0 min 0 min 0 W/m² 3,2 km/h (1 Bft) 84,93 %
01.02.2026 00:12 4,6 °C 3,9 °C 0,6 °C 94 % 1007,9 hPa 0,0 l/m² 0 min 0 min 0 W/m² 16,1 km/h (3 Bft) 100,00 %
01.02.2026 00:14 4,6 °C 3,9 °C 0,6 °C 94 % 1007,9 hPa 0,0 l/m² 0 min 0 min 0 W/m² 9,7 km/h (2 Bft) 97,87 %
01.02.2026 00:16 4,6 °C 3,9 °C 0,6 °C 94 % 1007,9 hPa 0,0 l/m² 0 min 0 min 0 W/m² 16,1 km/h (3 Bft) 93,62 %
01.02.2026 00:18 4,6 °C 3,9 °C 0,6 °C 94 % 1007,9 hPa 0,0 l/m² 0 min 0 min 0 W/m² 16,1 km/h (3 Bft) 43,75 %
01.02.2026 00:20 4,6 °C 3,9 °C 0,6 °C 94 % 1007,9 hPa 0,0 l/m² 0 min 0 min 0 W/m² 6,4 km/h (2 Bft) 97,87 %
01.02.2026 00:22 4,6 °C 3,9 °C 0,6 °C 94 % 1007,9 hPa 0,0 l/m² 0 min 0 min 0 W/m² 6,4 km/h (2 Bft) 97,87 %
01.02.2026 00:24 4,6 °C 3,9 °C 0,6 °C 94 % 1007,9 hPa 0,0 l/m² 0 min 0 min 0 W/m² 12,9 km/h (3 Bft) 97,87 %
01.02.2026 00:26 4,5 °C 3,9 °C 0,6 °C 94 % 1007,9 hPa 0,0 l/m² 0 min 0 min 0 W/m² 12,9 km/h (3 Bft) 95,74 %
01.02.2026 00:28 4,5 °C 3,9 °C 0,6 °C 94 % 1007,8 hPa 0,0 l/m² 0 min 0 min 0 W/m² 9,7 km/h (2 Bft) 97,87 %
01.02.2026 00:30 4,5 °C 3,9 °C 0,6 °C 94 % 1007,8 hPa 0,0 l/m² 0 min 0 min 0 W/m² 16,1 km/h (3 Bft) 95,74 %
01.02.2026 00:32 4,5 °C 3,9 °C 0,6 °C 94 % 1007,8 hPa 0,0 l/m² 0 min 0 min 0 W/m² 12,9 km/h (3 Bft) 97,83 %
01.02.2026 00:34 4,4 °C 3,9 °C 0,6 °C 94 % 1007,9 hPa 0,0 l/m² 0 min 0 min 0 W/m² 19,3 km/h (3 Bft) 91,49 %
01.02.2026 00:36 4,4 °C 3,9 °C 0,6 °C 94 % 1007,9 hPa 0,0 l/m² 0 min 0 min 0 W/m² 16,1 km/h (3 Bft) 95,74 %
01.02.2026 00:38 4,4 °C 3,9 °C 0,6 °C 94 % 1007,9 hPa 0,0 l/m² 0 min 0 min 0 W/m² 12,9 km/h (3 Bft) 97,87 %
01.02.2026 00:40 4,4 °C 3,9 °C 0,6 °C 94 % 1007,9 hPa 0,0 l/m² 0 min 0 min 0 W/m² 16,1 km/h (3 Bft) 95,74 %
01.02.2026 00:42 4,4 °C 3,9 °C 0,6 °C 94 % 1007,9 hPa 0,0 l/m² 0 min 0 min 0 W/m² 16,1 km/h (3 Bft) 95,65 %
01.02.2026 00:44 4,4 °C 3,9 °C 0,6 °C 94 % 1007,9 hPa 0,0 l/m² 0 min 0 min 0 W/m² 16,1 km/h (3 Bft) 95,74 %
01.02.2026 00:46 4,4 °C 3,9 °C 0,6 °C 94 % 1007,9 hPa 0,0 l/m² 0 min 0 min 0 W/m² 16,1 km/h (3 Bft) 97,87 %
01.02.2026 00:48 4,4 °C 3,9 °C 0,6 °C 94 % 1007,9 hPa 0,0 l/m² 0 min 0 min 0 W/m² 16,1 km/h (3 Bft) 95,74 %
01.02.2026 00:50 4,3 °C 3,9 °C 0,6 °C 94 % 1007,9 hPa 0,0 l/m² 0 min 0 min 0 W/m² 12,9 km/h (3 Bft) 95,74 %
01.02.2026 00:52 4,4 °C 3,9 °C 0,6 °C 94 % 1007,9 hPa 0,0 l/m² 0 min 0 min 0 W/m² 12,9 km/h (3 Bft) 97,87 %
01.02.2026 00:54 4,3 °C 3,9 °C 0,6 °C 94 % 1007,9 hPa 0,0 l/m² 0 min 0 min 0 W/m² 12,9 km/h (3 Bft) 97,83 %
01.02.2026 00:56 4,3 °C 3,3 °C 0,6 °C 94 % 1007,9 hPa 0,0 l/m² 0 min 0 min 0 W/m² 9,7 km/h (2 Bft) 97,87 %
01.02.2026 00:58 4,3 °C 3,3 °C 0,6 °C 94 % 1007,9 hPa 0,0 l/m² 0 min 0 min 0 W/m² 12,9 km/h (3 Bft) 97,87 %
01.02.2026 01:00 4,3 °C 3,3 °C 0,6 °C 94 % 1007,8 hPa 0,0 l/m² 0 min 0 min 0 W/m² 12,9 km/h (3 Bft) 95,74 %
01.02.2026 01:02 4,3 °C 3,3 °C 0,6 °C 94 % 1007,8 hPa 0,0 l/m² 0 min 0 min 0 W/m² 12,9 km/h (3 Bft) 95,74 %
01.02.2026 01:04 4,3 °C 3,3 °C 0,6 °C 95 % 1007,8 hPa 0,0 l/m² 0 min 0 min 0 W/m² 12,9 km/h (3 Bft) 97,87 %
01.02.2026 01:06 4,3 °C 3,3 °C 0,6 °C 95 % 1007,8 hPa 0,0 l/m² 0 min 0 min 0 W/m² 12,9 km/h (3 Bft) 95,65 %
01.02.2026 01:08 4,3 °C 3,3 °C 0,6 °C 94 % 1007,8 hPa 0,0 l/m² 0 min 0 min 0 W/m² 9,7 km/h (2 Bft) 95,83 %
01.02.2026 01:10 4,3 °C 3,3 °C 0,6 °C 94 % 1007,9 hPa 0,0 l/m² 0 min 0 min 0 W/m² 16,1 km/h (3 Bft) 95,74 %
01.02.2026 01:12 4,2 °C 3,3 °C 0,6 °C 94 % 1007,8 hPa 0,0 l/m² 0 min 0 min 0 W/m² 19,3 km/h (3 Bft) 97,87 %
01.02.2026 01:14 4,2 °C 3,3 °C 0,6 °C 94 % 1007,9 hPa 0,0 l/m² 0 min 0 min 0 W/m² 12,9 km/h (3 Bft) 95,74 %
01.02.2026 01:16 4,2 °C 3,3 °C 0,6 °C 94 % 1007,9 hPa 0,0 l/m² 0 min 0 min 0 W/m² 6,4 km/h (2 Bft) 95,74 %
01.02.2026 01:18 4,2 °C 3,3 °C 0,0 °C 94 % 1007,9 hPa 0,0 l/m² 0 min 0 min 0 W/m² 6,4 km/h (2 Bft) 93,48 %
01.02.2026 01:20 4,2 °C 3,3 °C 0,0 °C 94 % 1007,9 hPa 0,0 l/m² 0 min 0 min 0 W/m² 12,9 km/h (3 Bft) 97,87 %
01.02.2026 01:22 4,2 °C 3,3 °C 0,0 °C 95 % 1007,9 hPa 0,0 l/m² 0 min 0 min 0 W/m² 16,1 km/h (3 Bft) 97,87 %
01.02.2026 01:24 4,1 °C 3,3 °C 0,0 °C 95 % 1007,9 hPa 0,0 l/m² 0 min 0 min 0 W/m² 16,1 km/h (3 Bft) 100,00 %
01.02.2026 01:26 4,1 °C 3,3 °C 0,0 °C 95 % 1007,8 hPa 0,0 l/m² 0 min 0 min 0 W/m² 9,7 km/h (2 Bft) 95,74 %
01.02.2026 01:28 4,1 °C 3,3 °C 0,0 °C 95 % 1007,9 hPa 0,0 l/m² 0 min 0 min 0 W/m² 6,4 km/h (2 Bft) 97,83 %
01.02.2026 01:30 4,1 °C 3,3 °C 0,0 °C 95 % 1007,8 hPa 0,0 l/m² 0 min 0 min 0 W/m² 12,9 km/h (3 Bft) 97,87 %
01.02.2026 01:32 4,1 °C 3,3 °C 0,0 °C 95 % 1007,9 hPa 0,0 l/m² 0 min 0 min 0 W/m² 16,1 km/h (3 Bft) 95,74 %
01.02.2026 01:34 4,1 °C 3,3 °C 0,0 °C 95 % 1007,9 hPa 0,0 l/m² 0 min 0 min 0 W/m² 12,9 km/h (3 Bft) 97,87 %
01.02.2026 01:36 4,1 °C 3,3 °C 0,0 °C 95 % 1007,9 hPa 0,0 l/m² 0 min 0 min 0 W/m² 12,9 km/h (3 Bft) 97,87 %
01.02.2026 01:38 4,1 °C 3,3 °C 0,0 °C 95 % 1007,9 hPa 0,0 l/m² 0 min 0 min 0 W/m² 12,9 km/h (3 Bft) 97,87 %
01.02.2026 01:40 4,1 °C 3,3 °C 0,0 °C 95 % 1007,9 hPa 0,0 l/m² 0 min 0 min 0 W/m² 6,4 km/h (2 Bft) 97,83 %
01.02.2026 01:42 4,0 °C 3,3 °C 0,0 °C 95 % 1007,8 hPa 0,0 l/m² 0 min 0 min 0 W/m² 16,1 km/h (3 Bft) 97,87 %
01.02.2026 01:44 4,0 °C 3,3 °C 0,0 °C 95 % 1007,8 hPa 0,0 l/m² 0 min 0 min 0 W/m² 6,4 km/h (2 Bft) 97,87 %
01.02.2026 01:46 4,0 °C 2,8 °C 0,0 °C 95 % 1007,9 hPa 0,0 l/m² 0 min 0 min 0 W/m² 12,9 km/h (3 Bft) 93,62 %
01.02.2026 01:48 3,9 °C 2,8 °C 0,0 °C 95 % 1007,9 hPa 0,0 l/m² 0 min 0 min 0 W/m² 6,4 km/h (2 Bft) 93,62 %
01.02.2026 01:50 3,9 °C 2,8 °C 0,0 °C 95 % 1007,9 hPa 0,0 l/m² 0 min 0 min 0 W/m² 12,9 km/h (3 Bft) 95,74 %
01.02.2026 01:52 3,9 °C 2,8 °C 0,0 °C 95 % 1007,9 hPa 0,0 l/m² 0 min 0 min 0 W/m² 16,1 km/h (3 Bft) 97,83 %
01.02.2026 01:54 3,9 °C 2,8 °C 0,0 °C 95 % 1007,8 hPa 0,0 l/m² 0 min 0 min 0 W/m² 12,9 km/h (3 Bft) 97,87 %
01.02.2026 01:56 3,9 °C 2,8 °C 0,0 °C 95 % 1007,8 hPa 0,0 l/m² 0 min 0 min 0 W/m² 9,7 km/h (2 Bft) 97,87 %
01.02.2026 01:58 3,8 °C 2,8 °C 0,0 °C 95 % 1007,8 hPa 0,0 l/m² 0 min 0 min 0 W/m² 12,9 km/h (3 Bft) 97,87 %
01.02.2026 02:00 3,8 °C 2,8 °C 0,0 °C 95 % 1007,8 hPa 0,0 l/m² 0 min 0 min 0 W/m² 6,4 km/h (2 Bft) 100,00 %
01.02.2026 02:02 3,8 °C 2,8 °C 0,0 °C 95 % 1007,8 hPa 0,0 l/m² 0 min 0 min 0 W/m² 12,9 km/h (3 Bft) 100,00 %
01.02.2026 02:04 3,8 °C 2,8 °C 0,0 °C 95 % 1007,8 hPa 0,0 l/m² 0 min 0 min 0 W/m² 12,9 km/h (3 Bft) 100,00 %
01.02.2026 02:06 3,8 °C 2,8 °C 0,0 °C 95 % 1007,8 hPa 0,0 l/m² 0 min 0 min 0 W/m² 12,9 km/h (3 Bft) 95,74 %
01.02.2026 02:08 3,8 °C 2,8 °C 0,0 °C 95 % 1007,8 hPa 0,0 l/m² 0 min 0 min 0 W/m² 9,7 km/h (2 Bft) 100,00 %
01.02.2026 02:10 3,8 °C 2,8 °C 0,0 °C 95 % 1007,8 hPa 0,0 l/m² 0 min 0 min 0 W/m² 12,9 km/h (3 Bft) 97,87 %
01.02.2026 02:12 3,8 °C 2,8 °C 0,0 °C 95 % 1007,9 hPa 0,0 l/m² 0 min 0 min 0 W/m² 9,7 km/h (2 Bft) 100,00 %
01.02.2026 02:14 3,7 °C 2,8 °C 0,0 °C 95 % 1007,9 hPa 0,0 l/m² 0 min 0 min 0 W/m² 12,9 km/h (3 Bft) 100,00 %
01.02.2026 02:16 3,7 °C 2,8 °C 0,0 °C 95 % 1007,9 hPa 0,0 l/m² 0 min 0 min 0 W/m² 12,9 km/h (3 Bft) 93,48 %
01.02.2026 02:18 3,7 °C 2,8 °C 0,0 °C 95 % 1007,8 hPa 0,0 l/m² 0 min 0 min 0 W/m² 6,4 km/h (2 Bft) 95,74 %
01.02.2026 02:20 3,7 °C 2,8 °C 0,0 °C 95 % 1007,8 hPa 0,0 l/m² 0 min 0 min 0 W/m² 6,4 km/h (2 Bft) 100,00 %
01.02.2026 02:22 3,7 °C 2,8 °C 0,0 °C 95 % 1007,9 hPa 0,0 l/m² 0 min 0 min 0 W/m² 12,9 km/h (3 Bft) 100,00 %
01.02.2026 02:24 3,7 °C 2,8 °C 0,0 °C 95 % 1007,9 hPa 0,0 l/m² 0 min 0 min 0 W/m² 12,9 km/h (3 Bft) 100,00 %
01.02.2026 02:26 3,7 °C 2,8 °C 0,0 °C 95 % 1007,9 hPa 0,0 l/m² 0 min 0 min 0 W/m² 12,9 km/h (3 Bft) 97,87 %
01.02.2026 02:28 3,6 °C 2,8 °C 0,0 °C 95 % 1008,0 hPa 0,0 l/m² 0 min 0 min 0 W/m² 12,9 km/h (3 Bft) 95,65 %
01.02.2026 02:30 3,6 °C 2,8 °C 0,0 °C 95 % 1007,9 hPa 0,0 l/m² 0 min 0 min 0 W/m² 12,9 km/h (3 Bft) 97,87 %
01.02.2026 02:32 3,6 °C 2,8 °C 0,0 °C 95 % 1007,9 hPa 0,0 l/m² 0 min 0 min 0 W/m² 12,9 km/h (3 Bft) 95,74 %
01.02.2026 02:34 3,6 °C 2,8 °C 0,0 °C 95 % 1008,0 hPa 0,0 l/m² 0 min 0 min 0 W/m² 12,9 km/h (3 Bft) 95,74 %
01.02.2026 02:36 3,6 °C 2,8 °C 0,0 °C 95 % 1007,9 hPa 0,0 l/m² 0 min 0 min 0 W/m² 6,4 km/h (2 Bft) 93,62 %
01.02.2026 02:38 3,6 °C 2,8 °C -0,6 °C 95 % 1007,9 hPa 0,0 l/m² 0 min 0 min 0 W/m² 6,4 km/h (2 Bft) 95,74 %
01.02.2026 02:40 3,6 °C 2,8 °C -0,6 °C 95 % 1008,0 hPa 0,0 l/m² 0 min 0 min 0 W/m² 9,7 km/h (2 Bft) 95,65 %
01.02.2026 02:42 3,6 °C 2,8 °C -0,6 °C 95 % 1008,0 hPa 0,0 l/m² 0 min 0 min 0 W/m² 3,2 km/h (1 Bft) 95,74 %
01.02.2026 02:44 3,5 °C 2,8 °C -0,6 °C 95 % 1008,0 hPa 0,0 l/m² 0 min 0 min 0 W/m² 9,7 km/h (2 Bft) 95,74 %
01.02.2026 02:46 3,5 °C 2,8 °C -0,6 °C 95 % 1008,1 hPa 0,0 l/m² 0 min 0 min 0 W/m² 12,9 km/h (3 Bft) 93,62 %
01.02.2026 02:48 3,4 °C 2,2 °C -0,6 °C 95 % 1008,1 hPa 0,0 l/m² 0 min 0 min 0 W/m² 6,4 km/h (2 Bft) 95,74 %
01.02.2026 02:50 3,4 °C 2,2 °C -0,6 °C 95 % 1008,2 hPa 0,0 l/m² 0 min 0 min 0 W/m² 6,4 km/h (2 Bft) 95,74 %
01.02.2026 02:52 3,4 °C 2,2 °C -0,6 °C 95 % 1008,3 hPa 0,0 l/m² 0 min 0 min 0 W/m² 6,4 km/h (2 Bft) 95,65 %
01.02.2026 02:54 3,4 °C 2,2 °C -0,6 °C 95 % 1008,3 hPa 0,0 l/m² 0 min 0 min 0 W/m² 6,4 km/h (2 Bft) 95,74 %
01.02.2026 02:56 3,4 °C 2,2 °C -0,6 °C 95 % 1008,3 hPa 0,0 l/m² 0 min 0 min 0 W/m² 6,4 km/h (2 Bft) 95,74 %
01.02.2026 02:58 3,3 °C 2,2 °C -0,6 °C 95 % 1008,3 hPa 0,0 l/m² 0 min 0 min 0 W/m² 6,4 km/h (2 Bft) 95,74 %
01.02.2026 03:00 3,3 °C 2,2 °C -0,6 °C 95 % 1008,3 hPa 0,0 l/m² 0 min 0 min 0 W/m² 12,9 km/h (3 Bft) 97,87 %
01.02.2026 03:02 3,3 °C 2,2 °C -0,6 °C 95 % 1008,2 hPa 0,0 l/m² 0 min 0 min 0 W/m² 12,9 km/h (3 Bft) 91,49 %
01.02.2026 03:04 3,3 °C 2,2 °C -0,6 °C 95 % 1008,2 hPa 0,0 l/m² 0 min 0 min 0 W/m² 9,7 km/h (2 Bft) 97,83 %
01.02.2026 03:06 3,3 °C 2,2 °C -0,6 °C 95 % 1008,2 hPa 0,0 l/m² 0 min 0 min 0 W/m² 6,4 km/h (2 Bft) 95,74 %
01.02.2026 03:08 3,3 °C 2,2 °C -0,6 °C 95 % 1008,1 hPa 0,0 l/m² 0 min 0 min 0 W/m² 6,4 km/h (2 Bft) 97,92 %
01.02.2026 03:10 3,3 °C 2,2 °C -0,6 °C 95 % 1008,2 hPa 0,0 l/m² 0 min 0 min 0 W/m² 6,4 km/h (2 Bft) 97,87 %
01.02.2026 03:12 3,3 °C 2,2 °C -0,6 °C 95 % 1008,1 hPa 0,0 l/m² 0 min 0 min 0 W/m² 12,9 km/h (3 Bft) 97,87 %
01.02.2026 03:14 3,2 °C 2,2 °C -0,6 °C 95 % 1008,0 hPa 0,0 l/m² 0 min 0 min 0 W/m² 12,9 km/h (3 Bft) 97,83 %
01.02.2026 03:16 3,2 °C 2,2 °C -0,6 °C 95 % 1008,0 hPa 0,0 l/m² 0 min 0 min 0 W/m² 12,9 km/h (3 Bft) 100,00 %
01.02.2026 03:18 3,2 °C 2,2 °C -0,6 °C 95 % 1008,0 hPa 0,0 l/m² 0 min 0 min 0 W/m² 16,1 km/h (3 Bft) 97,87 %
01.02.2026 03:20 3,2 °C 2,2 °C -0,6 °C 95 % 1008,0 hPa 0,0 l/m² 0 min 0 min 0 W/m² 6,4 km/h (2 Bft) 100,00 %
01.02.2026 03:22 3,2 °C 2,2 °C -0,6 °C 95 % 1008,0 hPa 0,0 l/m² 0 min 0 min 0 W/m² 6,4 km/h (2 Bft) 100,00 %
01.02.2026 03:24 3,2 °C 2,2 °C -0,6 °C 95 % 1008,0 hPa 0,0 l/m² 0 min 0 min 0 W/m² 12,9 km/h (3 Bft) 100,00 %
01.02.2026 03:26 3,2 °C 2,2 °C -0,6 °C 95 % 1008,0 hPa 0,0 l/m² 0 min 0 min 0 W/m² 12,9 km/h (3 Bft) 100,00 %
01.02.2026 03:28 3,1 °C 2,2 °C -0,6 °C 95 % 1008,0 hPa 0,0 l/m² 0 min 0 min 0 W/m² 6,4 km/h (2 Bft) 97,87 %
01.02.2026 03:30 3,1 °C 2,2 °C -0,6 °C 95 % 1008,0 hPa 0,0 l/m² 0 min 0 min 0 W/m² 12,9 km/h (3 Bft) 100,00 %
01.02.2026 03:32 3,1 °C 2,2 °C -0,6 °C 95 % 1008,0 hPa 0,0 l/m² 0 min 0 min 0 W/m² 6,4 km/h (2 Bft) 100,00 %
01.02.2026 03:34 3,1 °C 2,2 °C -0,6 °C 95 % 1008,0 hPa 0,0 l/m² 0 min 0 min 0 W/m² 9,7 km/h (2 Bft) 97,87 %
01.02.2026 03:36 3,1 °C 2,2 °C -0,6 °C 95 % 1008,0 hPa 0,0 l/m² 0 min 0 min 0 W/m² 6,4 km/h (2 Bft) 100,00 %
01.02.2026 03:38 3,1 °C 2,2 °C -0,6 °C 95 % 1008,0 hPa 0,0 l/m² 0 min 0 min 0 W/m² 16,1 km/h (3 Bft) 100,00 %
01.02.2026 03:40 3,1 °C 2,2 °C -0,6 °C 95 % 1008,0 hPa 0,0 l/m² 0 min 0 min 0 W/m² 12,9 km/h (3 Bft) 97,87 %
01.02.2026 03:42 3,1 °C 2,2 °C -0,6 °C 95 % 1007,9 hPa 0,0 l/m² 0 min 0 min 0 W/m² 6,4 km/h (2 Bft) 100,00 %
01.02.2026 03:44 3,1 °C 2,2 °C -0,6 °C 95 % 1008,0 hPa 0,0 l/m² 0 min 0 min 0 W/m² 6,4 km/h (2 Bft) 97,87 %
01.02.2026 03:46 3,0 °C 2,2 °C -0,6 °C 95 % 1008,0 hPa 0,0 l/m² 0 min 0 min 0 W/m² 12,9 km/h (3 Bft) 100,00 %
01.02.2026 03:48 3,1 °C 2,2 °C -0,6 °C 95 % 1008,0 hPa 0,0 l/m² 0 min 0 min 0 W/m² 6,4 km/h (2 Bft) 100,00 %
01.02.2026 03:50 3,0 °C 2,2 °C -0,6 °C 96 % 1008,0 hPa 0,0 l/m² 0 min 0 min 0 W/m² 12,9 km/h (3 Bft) 100,00 %
01.02.2026 03:52 3,0 °C 2,2 °C -0,6 °C 96 % 1008,0 hPa 0,0 l/m² 0 min 0 min 0 W/m² 12,9 km/h (3 Bft) 100,00 %
01.02.2026 03:54 3,0 °C 2,2 °C -0,6 °C 96 % 1008,0 hPa 0,0 l/m² 0 min 0 min 0 W/m² 12,9 km/h (3 Bft) 100,00 %
01.02.2026 03:56 2,9 °C 2,2 °C -0,6 °C 96 % 1008,0 hPa 0,0 l/m² 0 min 0 min 0 W/m² 6,4 km/h (2 Bft) 100,00 %
01.02.2026 03:58 2,9 °C 2,2 °C -0,6 °C 96 % 1008,0 hPa 0,0 l/m² 0 min 0 min 0 W/m² 6,4 km/h (2 Bft) 100,00 %
01.02.2026 04:00 2,9 °C 2,2 °C -0,6 °C 96 % 1008,1 hPa 0,0 l/m² 0 min 0 min 0 W/m² 6,4 km/h (2 Bft) 97,87 %
01.02.2026 04:02 2,9 °C 2,2 °C -0,6 °C 96 % 1008,1 hPa 0,0 l/m² 0 min 0 min 0 W/m² 3,2 km/h (1 Bft) 100,00 %
01.02.2026 04:07 2,9 °C 2,2 °C -0,6 °C 96 % 1008,0 hPa 0,0 l/m² 0 min 0 min 0 W/m² 6,4 km/h (2 Bft) 100,00 %
01.02.2026 04:08 2,9 °C 2,2 °C -1,1 °C 95 % 1008,0 hPa 0,0 l/m² 0 min 0 min 0 W/m² 9,7 km/h (2 Bft) 100,00 %
01.02.2026 04:10 2,9 °C 2,2 °C -1,1 °C 96 % 1008,0 hPa 0,0 l/m² 0 min 0 min 0 W/m² 6,4 km/h (2 Bft) 100,00 %
01.02.2026 04:12 2,9 °C 2,2 °C -1,1 °C 96 % 1008,0 hPa 0,0 l/m² 0 min 0 min 0 W/m² 12,9 km/h (3 Bft) 97,87 %
01.02.2026 04:14 2,8 °C 2,2 °C -1,1 °C 96 % 1008,0 hPa 0,0 l/m² 0 min 0 min 0 W/m² 6,4 km/h (2 Bft) 97,83 %
01.02.2026 04:16 2,8 °C 2,2 °C -1,1 °C 96 % 1008,0 hPa 0,0 l/m² 0 min 0 min 0 W/m² 12,9 km/h (3 Bft) 93,62 %
01.02.2026 04:18 2,8 °C 2,2 °C -1,1 °C 96 % 1008,0 hPa 0,0 l/m² 0 min 0 min 0 W/m² 6,4 km/h (2 Bft) 97,87 %
01.02.2026 04:20 2,8 °C 1,7 °C -1,1 °C 96 % 1008,0 hPa 0,0 l/m² 0 min 0 min 0 W/m² 6,4 km/h (2 Bft) 95,74 %
01.02.2026 04:22 2,8 °C 1,7 °C -1,1 °C 96 % 1008,0 hPa 0,0 l/m² 0 min 0 min 0 W/m² 6,4 km/h (2 Bft) 95,74 %
01.02.2026 04:24 2,8 °C 1,7 °C -1,1 °C 96 % 1008,0 hPa 0,0 l/m² 0 min 0 min 0 W/m² 6,4 km/h (2 Bft) 93,48 %
01.02.2026 04:26 2,8 °C 1,7 °C -1,1 °C 96 % 1008,0 hPa 0,0 l/m² 0 min 0 min 0 W/m² 12,9 km/h (3 Bft) 93,62 %
01.02.2026 04:28 2,8 °C 1,7 °C -1,1 °C 96 % 1008,0 hPa 0,0 l/m² 0 min 0 min 0 W/m² 6,4 km/h (2 Bft) 93,62 %
01.02.2026 04:30 2,7 °C 1,7 °C -1,1 °C 96 % 1008,0 hPa 0,0 l/m² 0 min 0 min 0 W/m² 6,4 km/h (2 Bft) 95,74 %
01.02.2026 04:32 2,7 °C 1,7 °C -1,1 °C 96 % 1008,0 hPa 0,0 l/m² 0 min 0 min 0 W/m² 6,4 km/h (2 Bft) 95,74 %
01.02.2026 04:34 2,7 °C 1,7 °C -1,1 °C 96 % 1008,0 hPa 0,0 l/m² 0 min 0 min 0 W/m² 6,4 km/h (2 Bft) 95,74 %
01.02.2026 04:36 2,7 °C 1,7 °C -1,1 °C 96 % 1008,0 hPa 0,0 l/m² 0 min 0 min 0 W/m² 6,4 km/h (2 Bft) 95,65 %
01.02.2026 04:38 2,7 °C 1,7 °C -1,1 °C 96 % 1007,9 hPa 0,0 l/m² 0 min 0 min 0 W/m² 6,4 km/h (2 Bft) 91,49 %
01.02.2026 04:40 2,7 °C 1,7 °C -1,1 °C 96 % 1007,9 hPa 0,0 l/m² 0 min 0 min 0 W/m² 12,9 km/h (3 Bft) 95,74 %
01.02.2026 04:42 2,7 °C 1,7 °C -1,1 °C 96 % 1007,9 hPa 0,0 l/m² 0 min 0 min 0 W/m² 6,4 km/h (2 Bft) 91,49 %
01.02.2026 04:44 2,7 °C 1,7 °C -1,1 °C 96 % 1007,9 hPa 0,0 l/m² 0 min 0 min 0 W/m² 12,9 km/h (3 Bft) 97,87 %
01.02.2026 04:46 2,7 °C 1,7 °C -1,1 °C 96 % 1007,9 hPa 0,0 l/m² 0 min 0 min 0 W/m² 6,4 km/h (2 Bft) 91,49 %
01.02.2026 04:48 2,7 °C 1,7 °C -1,1 °C 96 % 1007,9 hPa 0,0 l/m² 0 min 0 min 0 W/m² 6,4 km/h (2 Bft) 97,83 %
01.02.2026 04:50 2,6 °C 1,7 °C -1,1 °C 96 % 1007,9 hPa 0,0 l/m² 0 min 0 min 0 W/m² 6,4 km/h (2 Bft) 96,30 %
01.02.2026 04:52 2,6 °C 1,7 °C -1,1 °C 96 % 1007,9 hPa 0,0 l/m² 0 min 0 min 0 W/m² 6,4 km/h (2 Bft) 95,74 %
01.02.2026 04:54 2,6 °C 1,7 °C -1,1 °C 96 % 1007,9 hPa 0,0 l/m² 0 min 0 min 0 W/m² 6,4 km/h (2 Bft) 97,87 %
01.02.2026 04:56 2,6 °C 1,7 °C -1,1 °C 96 % 1007,9 hPa 0,0 l/m² 0 min 0 min 0 W/m² 12,9 km/h (3 Bft) 93,62 %
01.02.2026 04:58 2,6 °C 1,7 °C -1,1 °C 96 % 1007,9 hPa 0,0 l/m² 0 min 0 min 0 W/m² 9,7 km/h (2 Bft) 95,74 %
01.02.2026 05:00 2,6 °C 1,7 °C -1,1 °C 96 % 1007,9 hPa 0,0 l/m² 0 min 0 min 0 W/m² 6,4 km/h (2 Bft) 91,30 %
01.02.2026 05:02 2,6 °C 1,7 °C -1,1 °C 96 % 1007,9 hPa 0,0 l/m² 0 min 0 min 0 W/m² 6,4 km/h (2 Bft) 95,74 %
01.02.2026 05:04 2,6 °C 2,2 °C -1,1 °C 96 % 1007,8 hPa 0,0 l/m² 0 min 0 min 0 W/m² 12,9 km/h (3 Bft) 95,74 %
01.02.2026 05:06 2,6 °C 2,2 °C -1,1 °C 96 % 1007,8 hPa 0,0 l/m² 0 min 0 min 0 W/m² 9,7 km/h (2 Bft) 95,74 %
01.02.2026 05:08 2,6 °C 2,2 °C -1,1 °C 96 % 1007,8 hPa 0,0 l/m² 0 min 0 min 0 W/m² 12,9 km/h (3 Bft) 97,92 %
01.02.2026 05:10 2,6 °C 2,2 °C -1,1 °C 96 % 1007,8 hPa 0,0 l/m² 0 min 0 min 0 W/m² 12,9 km/h (3 Bft) 97,14 %
01.02.2026 05:12 2,6 °C 2,2 °C -1,1 °C 96 % 1007,8 hPa 0,0 l/m² 0 min 0 min 0 W/m² 9,7 km/h (2 Bft) 95,74 %
01.02.2026 05:14 2,6 °C 1,7 °C -1,1 °C 96 % 1007,8 hPa 0,0 l/m² 0 min 0 min 0 W/m² 6,4 km/h (2 Bft) 97,83 %
01.02.2026 05:16 2,6 °C 2,2 °C -1,1 °C 96 % 1007,8 hPa 0,0 l/m² 0 min 0 min 0 W/m² 12,9 km/h (3 Bft) 98,31 %
01.02.2026 05:18 2,6 °C 2,2 °C -1,1 °C 96 % 1007,8 hPa 0,0 l/m² 0 min 0 min 0 W/m² 9,7 km/h (2 Bft) 94,29 %
01.02.2026 05:20 2,6 °C 2,2 °C -1,1 °C 96 % 1007,7 hPa 0,0 l/m² 0 min 0 min 0 W/m² 12,9 km/h (3 Bft) 94,92 %
01.02.2026 05:22 2,6 °C 2,2 °C -1,1 °C 96 % 1007,8 hPa 0,0 l/m² 0 min 0 min 0 W/m² 12,9 km/h (3 Bft) 97,87 %
01.02.2026 05:24 2,6 °C 2,2 °C -1,1 °C 96 % 1007,8 hPa 0,0 l/m² 0 min 0 min 0 W/m² 16,1 km/h (3 Bft) 97,83 %
01.02.2026 05:26 2,7 °C 2,2 °C -0,6 °C 96 % 1007,8 hPa 0,0 l/m² 0 min 0 min 0 W/m² 12,9 km/h (3 Bft) 97,14 %
01.02.2026 05:28 2,7 °C 2,2 °C -0,6 °C 96 % 1007,9 hPa 0,0 l/m² 0 min 0 min 0 W/m² 12,9 km/h (3 Bft) 97,87 %
01.02.2026 05:30 2,7 °C 2,2 °C -0,6 °C 96 % 1007,8 hPa 0,0 l/m² 0 min 0 min 0 W/m² 12,9 km/h (3 Bft) 96,61 %
01.02.2026 05:32 2,7 °C 2,2 °C -0,6 °C 96 % 1007,8 hPa 0,0 l/m² 0 min 0 min 0 W/m² 6,4 km/h (2 Bft) 97,87 %
01.02.2026 05:34 2,7 °C 2,2 °C -0,6 °C 96 % 1007,9 hPa 0,0 l/m² 0 min 0 min 0 W/m² 9,7 km/h (2 Bft) 100,00 %
01.02.2026 05:36 2,7 °C 2,2 °C -0,6 °C 96 % 1007,9 hPa 0,0 l/m² 0 min 0 min 0 W/m² 12,9 km/h (3 Bft) 97,87 %
01.02.2026 05:38 2,7 °C 2,2 °C -0,6 °C 96 % 1007,9 hPa 0,0 l/m² 0 min 0 min 0 W/m² 12,9 km/h (3 Bft) 98,28 %
01.02.2026 05:40 2,7 °C 2,2 °C -0,6 °C 96 % 1007,9 hPa 0,0 l/m² 0 min 0 min 0 W/m² 9,7 km/h (2 Bft) 53,49 %
01.02.2026 05:42 2,7 °C 2,2 °C -0,6 °C 96 % 1007,9 hPa 0,0 l/m² 0 min 0 min 0 W/m² 9,7 km/h (2 Bft) 94,29 %
01.02.2026 05:44 2,7 °C 2,2 °C -0,6 °C 96 % 1007,8 hPa 0,0 l/m² 0 min 0 min 0 W/m² 6,4 km/h (2 Bft) 100,00 %
01.02.2026 05:46 2,7 °C 2,2 °C -0,6 °C 96 % 1007,9 hPa 0,0 l/m² 0 min 0 min 0 W/m² 9,7 km/h (2 Bft) 97,87 %
01.02.2026 05:48 2,7 °C 2,2 °C -0,6 °C 96 % 1007,9 hPa 0,0 l/m² 0 min 0 min 0 W/m² 12,9 km/h (3 Bft) 97,96 %
01.02.2026 05:50 2,8 °C 2,2 °C -0,6 °C 96 % 1007,9 hPa 0,0 l/m² 0 min 0 min 0 W/m² 16,1 km/h (3 Bft) 100,00 %
01.02.2026 05:52 2,8 °C 2,2 °C -0,6 °C 97 % 1007,9 hPa 0,0 l/m² 0 min 0 min 0 W/m² 12,9 km/h (3 Bft) 100,00 %
01.02.2026 05:54 2,8 °C 2,2 °C -0,6 °C 96 % 1007,9 hPa 0,0 l/m² 0 min 0 min 0 W/m² 6,4 km/h (2 Bft) 100,00 %
01.02.2026 05:56 2,8 °C 2,2 °C -0,6 °C 96 % 1007,9 hPa 0,0 l/m² 0 min 0 min 0 W/m² 12,9 km/h (3 Bft) 100,00 %
01.02.2026 05:58 2,8 °C 2,2 °C -0,6 °C 96 % 1007,9 hPa 0,0 l/m² 0 min 0 min 0 W/m² 12,9 km/h (3 Bft) 100,00 %
01.02.2026 06:00 2,8 °C 2,2 °C -0,6 °C 97 % 1007,9 hPa 0,0 l/m² 0 min 0 min 0 W/m² 16,1 km/h (3 Bft) 100,00 %
01.02.2026 06:02 2,9 °C 2,8 °C -0,6 °C 97 % 1007,9 hPa 0,0 l/m² 0 min 0 min 0 W/m² 9,7 km/h (2 Bft) 98,00 %
01.02.2026 06:04 2,9 °C 2,8 °C -0,6 °C 97 % 1007,9 hPa 0,0 l/m² 0 min 0 min 0 W/m² 6,4 km/h (2 Bft) 97,92 %
01.02.2026 06:07 2,9 °C 2,8 °C -0,6 °C 97 % 1007,9 hPa 0,0 l/m² 0 min 0 min 0 W/m² 12,9 km/h (3 Bft) 96,92 %
01.02.2026 06:08 2,9 °C 2,8 °C -0,6 °C 97 % 1007,9 hPa 0,0 l/m² 0 min 0 min 0 W/m² 6,4 km/h (2 Bft) 100,00 %
01.02.2026 06:12 3,0 °C 2,8 °C -0,6 °C 97 % 1008,0 hPa 0,0 l/m² 0 min 0 min 0 W/m² 6,4 km/h (2 Bft) 96,36 %
01.02.2026 06:14 3,0 °C 2,8 °C -0,6 °C 97 % 1008,0 hPa 0,0 l/m² 0 min 0 min 0 W/m² 16,1 km/h (3 Bft) 97,87 %
01.02.2026 06:16 3,1 °C 2,8 °C 0,0 °C 97 % 1008,0 hPa 0,0 l/m² 0 min 0 min 0 W/m² 12,9 km/h (3 Bft) 100,00 %
01.02.2026 06:18 3,1 °C 2,8 °C 0,0 °C 97 % 1008,0 hPa 0,0 l/m² 0 min 0 min 0 W/m² 9,7 km/h (2 Bft) 95,74 %
01.02.2026 06:20 3,1 °C 2,8 °C 0,0 °C 97 % 1008,0 hPa 0,0 l/m² 0 min 0 min 0 W/m² 12,9 km/h (3 Bft) 98,18 %
01.02.2026 06:22 3,1 °C 2,8 °C 0,0 °C 97 % 1007,9 hPa 0,0 l/m² 0 min 0 min 0 W/m² 12,9 km/h (3 Bft) 98,00 %
01.02.2026 06:24 3,2 °C 2,8 °C 0,0 °C 97 % 1007,9 hPa 0,0 l/m² 0 min 0 min 0 W/m² 12,9 km/h (3 Bft) 97,87 %
01.02.2026 06:26 3,2 °C 2,8 °C 0,0 °C 97 % 1007,9 hPa 0,0 l/m² 0 min 0 min 0 W/m² 16,1 km/h (3 Bft) 97,87 %
01.02.2026 06:28 3,2 °C 2,8 °C 0,0 °C 97 % 1007,9 hPa 0,0 l/m² 0 min 0 min 0 W/m² 16,1 km/h (3 Bft) 95,74 %
01.02.2026 06:30 3,2 °C 2,8 °C 0,0 °C 97 % 1007,9 hPa 0,0 l/m² 0 min 0 min 0 W/m² 19,3 km/h (3 Bft) 95,74 %
01.02.2026 06:32 3,2 °C 2,8 °C 0,0 °C 97 % 1007,9 hPa 0,0 l/m² 0 min 0 min 0 W/m² 12,9 km/h (3 Bft) 65,96 %
01.02.2026 06:34 3,3 °C 2,8 °C 0,0 °C 97 % 1007,9 hPa 0,0 l/m² 0 min 0 min 0 W/m² 22,5 km/h (4 Bft) 85,00 %
01.02.2026 06:36 3,3 °C 2,8 °C 0,0 °C 97 % 1007,9 hPa 0,0 l/m² 0 min 0 min 0 W/m² 12,9 km/h (3 Bft) 97,22 %
01.02.2026 06:38 3,3 °C 2,8 °C 0,0 °C 97 % 1007,8 hPa 0,0 l/m² 0 min 0 min 0 W/m² 16,1 km/h (3 Bft) 98,15 %
01.02.2026 06:40 3,3 °C 2,8 °C 0,0 °C 97 % 1007,8 hPa 0,0 l/m² 0 min 0 min 0 W/m² 16,1 km/h (3 Bft) 100,00 %
01.02.2026 06:42 3,3 °C 2,8 °C 0,0 °C 97 % 1007,8 hPa 0,0 l/m² 0 min 0 min 0 W/m² 16,1 km/h (3 Bft) 100,00 %
01.02.2026 06:44 3,3 °C 2,8 °C 0,0 °C 97 % 1007,8 hPa 0,0 l/m² 0 min 0 min 0 W/m² 19,3 km/h (3 Bft) 100,00 %
01.02.2026 06:46 3,3 °C 2,8 °C 0,0 °C 97 % 1007,8 hPa 0,0 l/m² 0 min 0 min 0 W/m² 16,1 km/h (3 Bft) 100,00 %
01.02.2026 06:48 3,4 °C 2,8 °C 0,0 °C 97 % 1007,8 hPa 0,0 l/m² 0 min 0 min 0 W/m² 19,3 km/h (3 Bft) 100,00 %
01.02.2026 06:50 3,4 °C 2,8 °C 0,0 °C 97 % 1007,7 hPa 0,0 l/m² 0 min 0 min 0 W/m² 16,1 km/h (3 Bft) 100,00 %
01.02.2026 06:52 3,4 °C 2,8 °C 0,0 °C 97 % 1007,7 hPa 0,0 l/m² 0 min 0 min 0 W/m² 12,9 km/h (3 Bft) 100,00 %
01.02.2026 06:54 3,4 °C 2,8 °C 0,0 °C 97 % 1007,7 hPa 0,0 l/m² 0 min 0 min 0 W/m² 16,1 km/h (3 Bft) 96,36 %
01.02.2026 06:56 3,4 °C 2,8 °C 0,0 °C 97 % 1007,7 hPa 0,0 l/m² 0 min 0 min 0 W/m² 19,3 km/h (3 Bft) 100,00 %
01.02.2026 06:58 3,4 °C 2,8 °C 0,0 °C 97 % 1007,7 hPa 0,0 l/m² 0 min 0 min 0 W/m² 16,1 km/h (3 Bft) 100,00 %
01.02.2026 07:00 3,4 °C 2,8 °C 0,0 °C 97 % 1007,7 hPa 0,0 l/m² 0 min 0 min 0 W/m² 16,1 km/h (3 Bft) 100,00 %
01.02.2026 07:02 3,4 °C 2,8 °C 0,0 °C 97 % 1007,7 hPa 0,0 l/m² 0 min 0 min 0 W/m² 12,9 km/h (3 Bft) 100,00 %
01.02.2026 07:04 3,4 °C 2,8 °C 0,0 °C 97 % 1007,7 hPa 0,0 l/m² 0 min 0 min 0 W/m² 19,3 km/h (3 Bft) 98,00 %
01.02.2026 07:06 3,4 °C 2,8 °C 0,0 °C 97 % 1007,8 hPa 0,0 l/m² 0 min 0 min 0 W/m² 19,3 km/h (3 Bft) 97,96 %
01.02.2026 07:08 3,4 °C 2,8 °C 0,0 °C 97 % 1007,7 hPa 0,0 l/m² 0 min 0 min 0 W/m² 12,9 km/h (3 Bft) 100,00 %
01.02.2026 07:10 3,4 °C 2,8 °C 0,0 °C 97 % 1007,7 hPa 0,0 l/m² 0 min 0 min 0 W/m² 12,9 km/h (3 Bft) 100,00 %
01.02.2026 07:12 3,4 °C 3,3 °C 0,0 °C 97 % 1007,7 hPa 0,0 l/m² 0 min 0 min 0 W/m² 16,1 km/h (3 Bft) 100,00 %
01.02.2026 07:14 3,4 °C 3,3 °C 0,0 °C 97 % 1007,7 hPa 0,0 l/m² 0 min 0 min 0 W/m² 16,1 km/h (3 Bft) 98,15 %
01.02.2026 07:16 3,5 °C 3,3 °C 0,0 °C 97 % 1007,8 hPa 0,0 l/m² 0 min 0 min 0 W/m² 12,9 km/h (3 Bft) 100,00 %
01.02.2026 07:18 3,5 °C 3,3 °C 0,0 °C 97 % 1007,7 hPa 0,0 l/m² 0 min 0 min 0 W/m² 16,1 km/h (3 Bft) 100,00 %
01.02.2026 07:20 3,5 °C 3,3 °C 0,0 °C 97 % 1007,7 hPa 0,0 l/m² 0 min 0 min 0 W/m² 12,9 km/h (3 Bft) 97,92 %
01.02.2026 07:22 3,5 °C 2,8 °C 0,0 °C 97 % 1007,7 hPa 0,0 l/m² 0 min 0 min 0 W/m² 12,9 km/h (3 Bft) 94,34 %
01.02.2026 07:24 3,5 °C 3,3 °C 0,0 °C 97 % 1007,7 hPa 0,0 l/m² 0 min 0 min 0 W/m² 22,5 km/h (4 Bft) 95,74 %
01.02.2026 07:26 3,5 °C 2,8 °C 0,0 °C 97 % 1007,7 hPa 0,0 l/m² 0 min 0 min 0 W/m² 12,9 km/h (3 Bft) 93,62 %
01.02.2026 07:28 3,5 °C 2,8 °C 0,0 °C 97 % 1007,7 hPa 0,0 l/m² 0 min 0 min 0 W/m² 12,9 km/h (3 Bft) 74,47 %
01.02.2026 07:30 3,5 °C 2,8 °C 0,0 °C 97 % 1007,7 hPa 0,0 l/m² 0 min 0 min 0 W/m² 6,4 km/h (2 Bft) 73,33 %
01.02.2026 07:32 3,5 °C 2,8 °C 0,0 °C 97 % 1007,7 hPa 0,0 l/m² 0 min 0 min 0 W/m² 19,3 km/h (3 Bft) 95,74 %
01.02.2026 07:34 3,5 °C 2,8 °C 0,0 °C 97 % 1007,6 hPa 0,0 l/m² 0 min 0 min 0 W/m² 16,1 km/h (3 Bft) 95,65 %
01.02.2026 07:36 3,5 °C 2,8 °C 0,0 °C 97 % 1007,7 hPa 0,0 l/m² 0 min 0 min 0 W/m² 12,9 km/h (3 Bft) 91,49 %
01.02.2026 07:38 3,5 °C 2,8 °C 0,0 °C 97 % 1007,8 hPa 0,0 l/m² 0 min 0 min 0 W/m² 12,9 km/h (3 Bft) 95,74 %
01.02.2026 07:40 3,5 °C 2,8 °C 0,0 °C 97 % 1007,8 hPa 0,0 l/m² 0 min 0 min 0 W/m² 12,9 km/h (3 Bft) 95,74 %
01.02.2026 07:42 3,5 °C 2,8 °C 0,0 °C 97 % 1007,8 hPa 0,0 l/m² 0 min 0 min 0 W/m² 12,9 km/h (3 Bft) 95,74 %
01.02.2026 07:44 3,5 °C 2,8 °C 0,0 °C 97 % 1007,9 hPa 0,0 l/m² 0 min 0 min 0 W/m² 16,1 km/h (3 Bft) 95,74 %
01.02.2026 07:46 3,5 °C 2,8 °C 0,0 °C 97 % 1008,0 hPa 0,0 l/m² 0 min 0 min 0 W/m² 12,9 km/h (3 Bft) 95,65 %
01.02.2026 07:48 3,5 °C 2,8 °C 0,0 °C 97 % 1008,1 hPa 0,0 l/m² 0 min 0 min 0 W/m² 12,9 km/h (3 Bft) 89,36 %
01.02.2026 07:50 3,5 °C 2,8 °C 0,0 °C 97 % 1008,1 hPa 0,0 l/m² 0 min 0 min 0 W/m² 16,1 km/h (3 Bft) 95,74 %
01.02.2026 07:52 3,4 °C 2,8 °C 0,0 °C 97 % 1008,0 hPa 0,0 l/m² 0 min 0 min 0 W/m² 16,1 km/h (3 Bft) 93,62 %
01.02.2026 07:54 3,4 °C 2,8 °C 0,0 °C 97 % 1007,9 hPa 0,0 l/m² 0 min 0 min 0 W/m² 19,3 km/h (3 Bft) 93,62 %
01.02.2026 07:56 3,4 °C 2,8 °C 0,0 °C 97 % 1007,9 hPa 0,0 l/m² 0 min 0 min 0 W/m² 16,1 km/h (3 Bft) 91,49 %
01.02.2026 07:58 3,4 °C 2,8 °C 0,0 °C 97 % 1007,8 hPa 0,0 l/m² 0 min 0 min 0 W/m² 16,1 km/h (3 Bft) 93,48 %
01.02.2026 08:00 3,4 °C 2,8 °C 0,0 °C 96 % 1007,9 hPa 0,0 l/m² 0 min 0 min 0 W/m² 12,9 km/h (3 Bft) 93,62 %
01.02.2026 08:02 3,3 °C 2,8 °C 0,0 °C 96 % 1008,0 hPa 0,0 l/m² 0 min 0 min 0 W/m² 19,3 km/h (3 Bft) 91,49 %
01.02.2026 08:04 3,3 °C 2,8 °C 0,0 °C 96 % 1007,9 hPa 0,0 l/m² 0 min 0 min 0 W/m² 16,1 km/h (3 Bft) 95,74 %
01.02.2026 08:06 3,3 °C 2,8 °C 0,0 °C 96 % 1007,9 hPa 0,0 l/m² 0 min 0 min 0 W/m² 16,1 km/h (3 Bft) 95,92 %
01.02.2026 08:08 3,3 °C 2,8 °C 0,0 °C 96 % 1007,9 hPa 0,0 l/m² 0 min 0 min 0 W/m² 12,9 km/h (3 Bft) 95,83 %
01.02.2026 08:10 3,3 °C 2,8 °C 0,0 °C 96 % 1007,9 hPa 0,0 l/m² 0 min 0 min 0 W/m² 16,1 km/h (3 Bft) 95,74 %
01.02.2026 08:12 3,3 °C 2,8 °C 0,0 °C 96 % 1007,9 hPa 0,0 l/m² 0 min 0 min 0 W/m² 19,3 km/h (3 Bft) 97,83 %
01.02.2026 08:14 3,3 °C 2,8 °C 0,0 °C 96 % 1007,9 hPa 0,0 l/m² 0 min 0 min 0 W/m² 16,1 km/h (3 Bft) 97,87 %
01.02.2026 08:16 3,3 °C 2,8 °C 0,0 °C 96 % 1007,9 hPa 0,0 l/m² 0 min 0 min 0 W/m² 16,1 km/h (3 Bft) 100,00 %
01.02.2026 08:18 3,3 °C 2,8 °C 0,0 °C 96 % 1007,9 hPa 0,0 l/m² 0 min 0 min 1 W/m² 16,1 km/h (3 Bft) 95,92 %
01.02.2026 08:20 3,3 °C 2,8 °C 0,0 °C 96 % 1007,9 hPa 0,0 l/m² 0 min 0 min 5 W/m² 19,3 km/h (3 Bft) 97,87 %
01.02.2026 08:22 3,3 °C 2,8 °C 0,0 °C 96 % 1007,9 hPa 0,0 l/m² 0 min 0 min 5 W/m² 16,1 km/h (3 Bft) 96,23 %
01.02.2026 08:24 3,3 °C 2,8 °C 0,0 °C 96 % 1007,9 hPa 0,0 l/m² 0 min 0 min 5 W/m² 12,9 km/h (3 Bft) 97,92 %
01.02.2026 08:26 3,3 °C 2,8 °C 0,0 °C 96 % 1007,9 hPa 0,0 l/m² 0 min 0 min 5 W/m² 16,1 km/h (3 Bft) 100,00 %
01.02.2026 08:28 3,3 °C 2,8 °C 0,0 °C 96 % 1007,9 hPa 0,0 l/m² 0 min 0 min 7 W/m² 16,1 km/h (3 Bft) 97,96 %
01.02.2026 08:30 3,3 °C 2,8 °C 0,0 °C 96 % 1007,9 hPa 0,0 l/m² 0 min 0 min 7 W/m² 12,9 km/h (3 Bft) 100,00 %
01.02.2026 08:32 3,3 °C 2,8 °C 0,0 °C 96 % 1008,0 hPa 0,0 l/m² 0 min 0 min 7 W/m² 16,1 km/h (3 Bft) 100,00 %
01.02.2026 08:34 3,3 °C 2,8 °C 0,0 °C 96 % 1008,0 hPa 0,0 l/m² 0 min 0 min 8 W/m² 16,1 km/h (3 Bft) 95,83 %
01.02.2026 08:36 3,3 °C 2,8 °C 0,0 °C 96 % 1008,0 hPa 0,0 l/m² 0 min 0 min 9 W/m² 12,9 km/h (3 Bft) 97,87 %
01.02.2026 08:38 3,3 °C 2,8 °C 0,0 °C 96 % 1008,0 hPa 0,0 l/m² 0 min 0 min 10 W/m² 19,3 km/h (3 Bft) 97,30 %
01.02.2026 08:40 3,4 °C 2,8 °C 0,0 °C 96 % 1008,0 hPa 0,0 l/m² 0 min 0 min 11 W/m² 9,7 km/h (2 Bft) 100,00 %
01.02.2026 08:42 3,4 °C 2,8 °C 0,0 °C 96 % 1008,0 hPa 0,0 l/m² 0 min 0 min 12 W/m² 12,9 km/h (3 Bft) 95,74 %
01.02.2026 08:44 3,4 °C 2,8 °C 0,0 °C 96 % 1008,0 hPa 0,0 l/m² 0 min 0 min 13 W/m² 12,9 km/h (3 Bft) 100,00 %
01.02.2026 08:46 3,4 °C 2,8 °C 0,0 °C 96 % 1007,9 hPa 0,0 l/m² 0 min 0 min 14 W/m² 12,9 km/h (3 Bft) 100,00 %
01.02.2026 08:48 3,4 °C 2,8 °C 0,0 °C 96 % 1008,0 hPa 0,0 l/m² 0 min 0 min 15 W/m² 19,3 km/h (3 Bft) 100,00 %
01.02.2026 08:50 3,4 °C 3,3 °C 0,0 °C 96 % 1008,0 hPa 0,0 l/m² 0 min 0 min 18 W/m² 12,9 km/h (3 Bft) 100,00 %
01.02.2026 08:52 3,4 °C 3,3 °C 0,0 °C 96 % 1008,0 hPa 0,0 l/m² 0 min 0 min 20 W/m² 16,1 km/h (3 Bft) 97,87 %
01.02.2026 08:54 3,4 °C 3,3 °C 0,0 °C 96 % 1008,0 hPa 0,0 l/m² 0 min 0 min 25 W/m² 16,1 km/h (3 Bft) 100,00 %
01.02.2026 08:56 3,4 °C 3,3 °C 0,0 °C 97 % 1007,9 hPa 0,0 l/m² 0 min 0 min 30 W/m² 16,1 km/h (3 Bft) 100,00 %
01.02.2026 08:58 3,4 °C 3,3 °C 0,0 °C 97 % 1007,9 hPa 0,0 l/m² 0 min 0 min 35 W/m² 16,1 km/h (3 Bft) 100,00 %
01.02.2026 09:00 3,5 °C 3,3 °C 0,0 °C 97 % 1007,9 hPa 0,0 l/m² 0 min 0 min 40 W/m² 16,1 km/h (3 Bft) 100,00 %
01.02.2026 09:02 3,5 °C 3,3 °C 0,6 °C 97 % 1007,9 hPa 0,0 l/m² 0 min 0 min 38 W/m² 16,1 km/h (3 Bft) 96,36 %
01.02.2026 09:04 3,6 °C 3,3 °C 0,6 °C 97 % 1007,9 hPa 0,0 l/m² 0 min 0 min 37 W/m² 16,1 km/h (3 Bft) 100,00 %
01.02.2026 09:06 3,6 °C 3,3 °C 0,6 °C 97 % 1007,9 hPa 0,0 l/m² 0 min 0 min 37 W/m² 16,1 km/h (3 Bft) 100,00 %
01.02.2026 09:08 3,6 °C 3,3 °C 0,6 °C 97 % 1007,9 hPa 0,0 l/m² 0 min 0 min 37 W/m² 19,3 km/h (3 Bft) 100,00 %
01.02.2026 09:10 3,6 °C 3,3 °C 0,6 °C 97 % 1007,9 hPa 0,0 l/m² 0 min 0 min 37 W/m² 19,3 km/h (3 Bft) 100,00 %
01.02.2026 09:12 3,6 °C 3,3 °C 0,6 °C 97 % 1007,9 hPa 0,0 l/m² 0 min 0 min 38 W/m² 22,5 km/h (4 Bft) 100,00 %
01.02.2026 09:14 3,6 °C 3,3 °C 0,6 °C 97 % 1007,9 hPa 0,0 l/m² 0 min 0 min 39 W/m² 16,1 km/h (3 Bft) 100,00 %
01.02.2026 09:16 3,7 °C 3,9 °C 0,6 °C 97 % 1007,9 hPa 0,0 l/m² 0 min 0 min 44 W/m² 12,9 km/h (3 Bft) 100,00 %
01.02.2026 09:18 3,7 °C 3,9 °C 0,6 °C 97 % 1007,9 hPa 0,0 l/m² 0 min 0 min 51 W/m² 12,9 km/h (3 Bft) 100,00 %
01.02.2026 09:20 3,7 °C 3,9 °C 0,6 °C 97 % 1008,0 hPa 0,0 l/m² 0 min 0 min 58 W/m² 12,9 km/h (3 Bft) 100,00 %
01.02.2026 09:22 3,7 °C 3,9 °C 0,6 °C 97 % 1007,9 hPa 0,0 l/m² 0 min 0 min 61 W/m² 12,9 km/h (3 Bft) 100,00 %
01.02.2026 09:24 3,8 °C 3,9 °C 0,6 °C 97 % 1007,9 hPa 0,0 l/m² 0 min 0 min 62 W/m² 19,3 km/h (3 Bft) 100,00 %
01.02.2026 09:26 3,8 °C 3,9 °C 0,6 °C 97 % 1008,0 hPa 0,0 l/m² 0 min 0 min 63 W/m² 12,9 km/h (3 Bft) 100,00 %
01.02.2026 09:28 3,8 °C 3,9 °C 0,6 °C 97 % 1008,0 hPa 0,0 l/m² 0 min 0 min 62 W/m² 19,3 km/h (3 Bft) 100,00 %
01.02.2026 09:30 3,8 °C 3,9 °C 0,6 °C 97 % 1007,9 hPa 0,0 l/m² 0 min 0 min 63 W/m² 12,9 km/h (3 Bft) 100,00 %
01.02.2026 09:32 3,9 °C 3,9 °C 0,6 °C 97 % 1007,8 hPa 0,0 l/m² 0 min 0 min 63 W/m² 19,3 km/h (3 Bft) 95,65 %
01.02.2026 09:34 3,9 °C 3,9 °C 0,6 °C 97 % 1007,9 hPa 0,0 l/m² 0 min 0 min 57 W/m² 19,3 km/h (3 Bft) 100,00 %
01.02.2026 09:36 3,9 °C 3,9 °C 0,6 °C 97 % 1007,8 hPa 0,0 l/m² 0 min 0 min 55 W/m² 12,9 km/h (3 Bft) 100,00 %
01.02.2026 09:38 3,9 °C 3,9 °C 0,6 °C 97 % 1007,8 hPa 0,0 l/m² 0 min 0 min 61 W/m² 12,9 km/h (3 Bft) 100,00 %
01.02.2026 09:40 3,9 °C 3,9 °C 0,6 °C 97 % 1007,8 hPa 0,0 l/m² 0 min 0 min 74 W/m² 12,9 km/h (3 Bft) 95,74 %
01.02.2026 09:42 3,9 °C 4,4 °C 1,1 °C 97 % 1007,9 hPa 0,0 l/m² 0 min 0 min 90 W/m² 12,9 km/h (3 Bft) 100,00 %
01.02.2026 09:44 4,0 °C 4,4 °C 1,1 °C 97 % 1007,9 hPa 0,0 l/m² 0 min 0 min 90 W/m² 19,3 km/h (3 Bft) 100,00 %
01.02.2026 09:46 4,0 °C 4,4 °C 1,1 °C 97 % 1007,9 hPa 0,0 l/m² 0 min 0 min 82 W/m² 16,1 km/h (3 Bft) 100,00 %
01.02.2026 09:48 4,1 °C 4,4 °C 1,1 °C 97 % 1007,9 hPa 0,0 l/m² 0 min 0 min 76 W/m² 16,1 km/h (3 Bft) 100,00 %
01.02.2026 09:50 4,1 °C 4,4 °C 1,1 °C 97 % 1007,9 hPa 0,0 l/m² 0 min 0 min 67 W/m² 12,9 km/h (3 Bft) 95,92 %
01.02.2026 09:52 4,1 °C 4,4 °C 1,1 °C 97 % 1007,9 hPa 0,0 l/m² 0 min 0 min 62 W/m² 9,7 km/h (2 Bft) 97,87 %
01.02.2026 09:54 4,1 °C 4,4 °C 1,1 °C 97 % 1007,9 hPa 0,0 l/m² 0 min 0 min 56 W/m² 19,3 km/h (3 Bft) 97,37 %
01.02.2026 09:56 4,1 °C 3,9 °C 1,1 °C 96 % 1007,9 hPa 0,0 l/m² 0 min 0 min 53 W/m² 12,9 km/h (3 Bft) 95,74 %
01.02.2026 09:58 4,2 °C 3,9 °C 1,1 °C 96 % 1007,8 hPa 0,0 l/m² 0 min 0 min 49 W/m² 19,3 km/h (3 Bft) 95,65 %
01.02.2026 10:00 4,2 °C 3,9 °C 1,1 °C 96 % 1007,8 hPa 0,0 l/m² 0 min 0 min 46 W/m² 19,3 km/h (3 Bft) 93,75 %
01.02.2026 10:02 4,2 °C 3,9 °C 1,1 °C 97 % 1007,8 hPa 0,0 l/m² 0 min 0 min 41 W/m² 12,9 km/h (3 Bft) 93,62 %
01.02.2026 10:04 4,2 °C 3,9 °C 1,1 °C 97 % 1007,8 hPa 0,0 l/m² 0 min 0 min 40 W/m² 12,9 km/h (3 Bft) 95,83 %
01.02.2026 10:06 4,2 °C 3,9 °C 1,1 °C 97 % 1007,8 hPa 0,0 l/m² 0 min 0 min 40 W/m² 12,9 km/h (3 Bft) 93,62 %
01.02.2026 10:08 4,2 °C 3,9 °C 1,1 °C 96 % 1007,8 hPa 0,0 l/m² 0 min 0 min 42 W/m² 12,9 km/h (3 Bft) 95,65 %
01.02.2026 10:10 4,2 °C 3,9 °C 1,1 °C 96 % 1007,8 hPa 0,0 l/m² 0 min 0 min 44 W/m² 16,1 km/h (3 Bft) 95,74 %
01.02.2026 10:12 4,2 °C 3,9 °C 1,1 °C 96 % 1007,8 hPa 0,0 l/m² 0 min 0 min 46 W/m² 16,1 km/h (3 Bft) 95,74 %
01.02.2026 10:14 4,3 °C 3,9 °C 1,1 °C 96 % 1007,8 hPa 0,0 l/m² 0 min 0 min 45 W/m² 12,9 km/h (3 Bft) 92,45 %
01.02.2026 10:16 4,3 °C 3,9 °C 1,1 °C 96 % 1007,8 hPa 0,0 l/m² 0 min 0 min 46 W/m² 16,1 km/h (3 Bft) 93,75 %
01.02.2026 10:18 4,3 °C 3,9 °C 1,1 °C 96 % 1007,9 hPa 0,0 l/m² 0 min 0 min 48 W/m² 16,1 km/h (3 Bft) 93,62 %
01.02.2026 10:20 4,3 °C 4,4 °C 1,1 °C 96 % 1007,8 hPa 0,0 l/m² 0 min 0 min 51 W/m² 16,1 km/h (3 Bft) 92,11 %
01.02.2026 10:22 4,3 °C 4,4 °C 1,1 °C 96 % 1007,8 hPa 0,0 l/m² 0 min 0 min 50 W/m² 25,7 km/h (4 Bft) 93,75 %
01.02.2026 10:24 4,3 °C 4,4 °C 1,1 °C 96 % 1007,9 hPa 0,0 l/m² 0 min 0 min 50 W/m² 12,9 km/h (3 Bft) 81,40 %
01.02.2026 10:26 4,3 °C 4,4 °C 1,1 °C 96 % 1007,8 hPa 0,0 l/m² 0 min 0 min 52 W/m² 16,1 km/h (3 Bft) 48,28 %
01.02.2026 10:28 4,4 °C 4,4 °C 1,1 °C 96 % 1007,8 hPa 0,0 l/m² 0 min 0 min 59 W/m² 12,9 km/h (3 Bft) 95,83 %
01.02.2026 10:30 4,4 °C 4,4 °C 1,1 °C 96 % 1007,8 hPa 0,0 l/m² 0 min 0 min 67 W/m² 12,9 km/h (3 Bft) 97,92 %
01.02.2026 10:32 4,4 °C 4,4 °C 1,1 °C 96 % 1007,8 hPa 0,0 l/m² 0 min 0 min 69 W/m² 19,3 km/h (3 Bft) 93,48 %
01.02.2026 10:34 4,4 °C 4,4 °C 1,1 °C 96 % 1007,8 hPa 0,0 l/m² 0 min 0 min 65 W/m² 6,4 km/h (2 Bft) 95,35 %
01.02.2026 10:36 4,5 °C 4,4 °C 1,1 °C 96 % 1007,9 hPa 0,0 l/m² 0 min 0 min 63 W/m² 12,9 km/h (3 Bft) 95,83 %
01.02.2026 10:38 4,5 °C 4,4 °C 1,1 °C 96 % 1007,8 hPa 0,0 l/m² 0 min 0 min 63 W/m² 12,9 km/h (3 Bft) 93,62 %
01.02.2026 10:40 4,6 °C 4,4 °C 1,1 °C 96 % 1007,9 hPa 0,0 l/m² 0 min 0 min 64 W/m² 19,3 km/h (3 Bft) 93,88 %
01.02.2026 10:42 4,6 °C 4,4 °C 1,1 °C 96 % 1007,7 hPa 0,0 l/m² 0 min 0 min 70 W/m² 16,1 km/h (3 Bft) 95,83 %
01.02.2026 10:44 4,6 °C 4,4 °C 1,1 °C 96 % 1007,8 hPa 0,0 l/m² 0 min 0 min 82 W/m² 16,1 km/h (3 Bft) 97,83 %
01.02.2026 10:46 4,6 °C 4,4 °C 1,1 °C 96 % 1007,7 hPa 0,0 l/m² 0 min 0 min 94 W/m² 22,5 km/h (4 Bft) 93,62 %
01.02.2026 10:48 4,6 °C 5,0 °C 1,1 °C 96 % 1007,8 hPa 0,0 l/m² 0 min 0 min 98 W/m² 16,1 km/h (3 Bft) 96,30 %
01.02.2026 10:50 4,6 °C 5,0 °C 1,7 °C 96 % 1007,7 hPa 0,0 l/m² 0 min 0 min 101 W/m² 22,5 km/h (4 Bft) 97,22 %
01.02.2026 10:52 4,6 °C 5,0 °C 1,7 °C 96 % 1007,7 hPa 0,0 l/m² 0 min 0 min 97 W/m² 19,3 km/h (3 Bft) 97,96 %
01.02.2026 10:54 4,7 °C 5,0 °C 1,7 °C 96 % 1007,7 hPa 0,0 l/m² 0 min 0 min 92 W/m² 19,3 km/h (3 Bft) 97,96 %
01.02.2026 10:56 4,7 °C 5,0 °C 1,7 °C 96 % 1007,8 hPa 0,0 l/m² 0 min 0 min 90 W/m² 16,1 km/h (3 Bft) 97,83 %
01.02.2026 10:58 4,7 °C 5,0 °C 1,7 °C 96 % 1007,7 hPa 0,0 l/m² 0 min 0 min 89 W/m² 12,9 km/h (3 Bft) 98,11 %
01.02.2026 11:00 4,7 °C 5,0 °C 1,7 °C 96 % 1007,7 hPa 0,0 l/m² 0 min 0 min 92 W/m² 19,3 km/h (3 Bft) 100,00 %
01.02.2026 11:02 4,7 °C 5,0 °C 1,7 °C 96 % 1007,7 hPa 0,0 l/m² 0 min 0 min 98 W/m² 16,1 km/h (3 Bft) 97,92 %
01.02.2026 11:04 4,8 °C 5,0 °C 1,7 °C 96 % 1007,7 hPa 0,0 l/m² 0 min 0 min 102 W/m² 19,3 km/h (3 Bft) 100,00 %
01.02.2026 11:06 4,8 °C 5,0 °C 1,7 °C 96 % 1007,7 hPa 0,0 l/m² 0 min 0 min 107 W/m² 16,1 km/h (3 Bft) 100,00 %
01.02.2026 11:08 4,8 °C 5,0 °C 1,7 °C 96 % 1007,7 hPa 0,0 l/m² 0 min 0 min 103 W/m² 16,1 km/h (3 Bft) 100,00 %
01.02.2026 11:10 4,8 °C 5,0 °C 1,7 °C 96 % 1007,6 hPa 0,0 l/m² 0 min 0 min 102 W/m² 19,3 km/h (3 Bft) 100,00 %
01.02.2026 11:12 4,8 °C 5,0 °C 1,7 °C 96 % 1007,6 hPa 0,0 l/m² 0 min 0 min 106 W/m² 19,3 km/h (3 Bft) 97,87 %
01.02.2026 11:14 4,9 °C 5,0 °C 1,7 °C 96 % 1007,7 hPa 0,0 l/m² 0 min 0 min 117 W/m² 19,3 km/h (3 Bft) 100,00 %
01.02.2026 11:16 4,9 °C 5,0 °C 1,7 °C 96 % 1007,6 hPa 0,0 l/m² 0 min 0 min 125 W/m² 16,1 km/h (3 Bft) 100,00 %
01.02.2026 11:18 4,9 °C 5,6 °C 1,7 °C 96 % 1007,6 hPa 0,0 l/m² 0 min 0 min 131 W/m² 19,3 km/h (3 Bft) 100,00 %
01.02.2026 11:20 4,9 °C 5,6 °C 1,7 °C 96 % 1007,6 hPa 0,0 l/m² 0 min 0 min 136 W/m² 16,1 km/h (3 Bft) 100,00 %
01.02.2026 11:22 5,0 °C 5,6 °C 2,2 °C 96 % 1007,6 hPa 0,0 l/m² 0 min 0 min 139 W/m² 16,1 km/h (3 Bft) 100,00 %
01.02.2026 11:24 5,0 °C 5,6 °C 2,2 °C 96 % 1007,6 hPa 0,0 l/m² 0 min 0 min 139 W/m² 16,1 km/h (3 Bft) 100,00 %
01.02.2026 11:26 5,1 °C 5,6 °C 2,2 °C 96 % 1007,7 hPa 0,0 l/m² 0 min 0 min 138 W/m² 22,5 km/h (4 Bft) 100,00 %
01.02.2026 11:28 5,1 °C 5,6 °C 2,2 °C 95 % 1007,6 hPa 0,0 l/m² 0 min 0 min 138 W/m² 19,3 km/h (3 Bft) 100,00 %
01.02.2026 11:30 5,1 °C 5,6 °C 2,2 °C 95 % 1007,6 hPa 0,0 l/m² 0 min 0 min 149 W/m² 16,1 km/h (3 Bft) 100,00 %
01.02.2026 11:32 5,2 °C 6,1 °C 2,2 °C 95 % 1007,7 hPa 0,0 l/m² 0 min 0 min 158 W/m² 9,7 km/h (2 Bft) 100,00 %
01.02.2026 11:34 5,2 °C 6,1 °C 2,2 °C 95 % 1007,7 hPa 0,0 l/m² 0 min 0 min 167 W/m² 16,1 km/h (3 Bft) 100,00 %
01.02.2026 11:36 5,3 °C 6,7 °C 2,2 °C 95 % 1007,6 hPa 0,0 l/m² 2 min 0 min 191 W/m² 16,1 km/h (3 Bft) 100,00 %
01.02.2026 11:38 5,3 °C 7,8 °C 2,8 °C 95 % 1007,6 hPa 0,0 l/m² 2 min 0 min 264 W/m² 12,9 km/h (3 Bft) 100,00 %
01.02.2026 11:40 5,4 °C 9,4 °C 2,8 °C 95 % 1007,6 hPa 0,0 l/m² 2 min 0 min 329 W/m² 19,3 km/h (3 Bft) 100,00 %
01.02.2026 11:42 5,5 °C 8,3 °C 2,8 °C 95 % 1007,6 hPa 0,0 l/m² 2 min 0 min 252 W/m² 29,0 km/h (5 Bft) 100,00 %
01.02.2026 11:44 5,6 °C 8,3 °C 2,8 °C 95 % 1007,6 hPa 0,0 l/m² 2 min 0 min 223 W/m² 19,3 km/h (3 Bft) 100,00 %
01.02.2026 11:46 5,6 °C 8,3 °C 2,8 °C 95 % 1007,6 hPa 0,0 l/m² 2 min 0 min 228 W/m² 25,7 km/h (4 Bft) 100,00 %
01.02.2026 11:48 5,7 °C 8,3 °C 3,3 °C 95 % 1007,6 hPa 0,0 l/m² 2 min 0 min 249 W/m² 19,3 km/h (3 Bft) 100,00 %
01.02.2026 11:50 5,7 °C 7,8 °C 2,8 °C 95 % 1007,6 hPa 0,0 l/m² 2 min 0 min 214 W/m² 22,5 km/h (4 Bft) 100,00 %
01.02.2026 11:52 5,8 °C 7,2 °C 2,8 °C 95 % 1007,6 hPa 0,0 l/m² 2 min 0 min 202 W/m² 29,0 km/h (5 Bft) 98,11 %
01.02.2026 11:54 5,8 °C 7,8 °C 2,8 °C 95 % 1007,5 hPa 0,0 l/m² 2 min 0 min 228 W/m² 16,1 km/h (3 Bft) 97,37 %
01.02.2026 11:56 5,9 °C 8,3 °C 2,8 °C 94 % 1007,5 hPa 0,0 l/m² 2 min 0 min 239 W/m² 16,1 km/h (3 Bft) 97,92 %
01.02.2026 11:58 5,9 °C 9,4 °C 3,3 °C 94 % 1007,5 hPa 0,0 l/m² 2 min 0 min 269 W/m² 19,3 km/h (3 Bft) 97,92 %
01.02.2026 12:00 6,0 °C 9,4 °C 3,3 °C 94 % 1007,5 hPa 0,0 l/m² 2 min 0 min 243 W/m² 16,1 km/h (3 Bft) 97,96 %
01.02.2026 12:02 6,1 °C 8,9 °C 3,3 °C 94 % 1007,4 hPa 0,0 l/m² 2 min 0 min 208 W/m² 19,3 km/h (3 Bft) 97,92 %
01.02.2026 12:04 6,2 °C 8,3 °C 3,3 °C 94 % 1007,5 hPa 0,0 l/m² 2 min 0 min 205 W/m² 22,5 km/h (4 Bft) 95,74 %
01.02.2026 12:07 6,2 °C 8,3 °C 3,3 °C 93 % 1007,4 hPa 0,0 l/m² 3 min 0 min 205 W/m² 16,1 km/h (3 Bft) 97,18 %
01.02.2026 12:08 6,2 °C 7,8 °C 3,3 °C 93 % 1007,4 hPa 0,0 l/m² 1 min 0 min 200 W/m² 25,7 km/h (4 Bft) 100,00 %
01.02.2026 12:12 6,3 °C 7,8 °C 3,3 °C 93 % 1007,5 hPa 0,0 l/m² 4 min 0 min 199 W/m² 19,3 km/h (3 Bft) 96,61 %
01.02.2026 12:16 6,4 °C 8,3 °C 3,3 °C 93 % 1007,4 hPa 0,0 l/m² 4 min 0 min 210 W/m² 19,3 km/h (3 Bft) 97,56 %
01.02.2026 12:18 6,4 °C 8,9 °C 3,3 °C 93 % 1007,3 hPa 0,0 l/m² 2 min 0 min 254 W/m² 16,1 km/h (3 Bft) 98,28 %
01.02.2026 12:20 6,5 °C 9,4 °C 3,3 °C 92 % 1007,3 hPa 0,0 l/m² 2 min 0 min 212 W/m² 12,9 km/h (3 Bft) 97,37 %
01.02.2026 12:22 6,6 °C 10,0 °C 3,9 °C 92 % 1007,3 hPa 0,0 l/m² 2 min 0 min 214 W/m² 16,1 km/h (3 Bft) 98,00 %
01.02.2026 12:24 6,7 °C 10,0 °C 3,9 °C 92 % 1007,3 hPa 0,0 l/m² 2 min 0 min 240 W/m² 16,1 km/h (3 Bft) 95,74 %
01.02.2026 12:26 6,7 °C 11,1 °C 3,9 °C 92 % 1007,2 hPa 0,0 l/m² 2 min 0 min 392 W/m² 19,3 km/h (3 Bft) 95,74 %
01.02.2026 12:28 6,8 °C 11,7 °C 3,9 °C 92 % 1007,2 hPa 0,0 l/m² 2 min 0 min 461 W/m² 16,1 km/h (3 Bft) 100,00 %
01.02.2026 12:30 6,9 °C 10,6 °C 3,9 °C 92 % 1007,2 hPa 0,0 l/m² 2 min 0 min 363 W/m² 19,3 km/h (3 Bft) 100,00 %
01.02.2026 12:32 7,1 °C 11,1 °C 3,9 °C 91 % 1007,2 hPa 0,0 l/m² 2 min 0 min 431 W/m² 16,1 km/h (3 Bft) 100,00 %
01.02.2026 12:34 7,1 °C 11,1 °C 3,9 °C 91 % 1007,2 hPa 0,0 l/m² 2 min 0 min 421 W/m² 16,1 km/h (3 Bft) 100,00 %
01.02.2026 12:36 7,2 °C 10,6 °C 3,9 °C 91 % 1007,1 hPa 0,0 l/m² 2 min 0 min 316 W/m² 19,3 km/h (3 Bft) 100,00 %
01.02.2026 12:38 7,3 °C 10,0 °C 3,9 °C 90 % 1007,2 hPa 0,0 l/m² 2 min 0 min 236 W/m² 19,3 km/h (3 Bft) 100,00 %
01.02.2026 12:40 7,3 °C 9,4 °C 3,9 °C 90 % 1007,1 hPa 0,0 l/m² 2 min 0 min 242 W/m² 19,3 km/h (3 Bft) 100,00 %
01.02.2026 12:42 7,3 °C 9,4 °C 3,9 °C 90 % 1007,1 hPa 0,0 l/m² 2 min 0 min 235 W/m² 22,5 km/h (4 Bft) 97,96 %
01.02.2026 12:44 7,4 °C 9,4 °C 3,9 °C 90 % 1007,1 hPa 0,0 l/m² 2 min 0 min 238 W/m² 16,1 km/h (3 Bft) 100,00 %
01.02.2026 12:46 7,4 °C 9,4 °C 4,4 °C 89 % 1007,1 hPa 0,0 l/m² 2 min 0 min 241 W/m² 19,3 km/h (3 Bft) 97,87 %
01.02.2026 12:48 7,4 °C 10,0 °C 4,4 °C 89 % 1007,0 hPa 0,0 l/m² 2 min 0 min 258 W/m² 12,9 km/h (3 Bft) 100,00 %
01.02.2026 12:50 7,5 °C 10,0 °C 4,4 °C 89 % 1007,1 hPa 0,0 l/m² 2 min 0 min 297 W/m² 19,3 km/h (3 Bft) 100,00 %
01.02.2026 12:52 7,6 °C 10,6 °C 4,4 °C 89 % 1007,1 hPa 0,0 l/m² 2 min 0 min 294 W/m² 16,1 km/h (3 Bft) 95,65 %
01.02.2026 12:54 7,6 °C 11,1 °C 4,4 °C 89 % 1007,0 hPa 0,0 l/m² 2 min 0 min 298 W/m² 16,1 km/h (3 Bft) 97,87 %
01.02.2026 12:56 7,7 °C 10,0 °C 4,4 °C 89 % 1007,0 hPa 0,0 l/m² 2 min 0 min 237 W/m² 19,3 km/h (3 Bft) 98,15 %
01.02.2026 12:58 7,7 °C 9,4 °C 4,4 °C 89 % 1007,0 hPa 0,0 l/m² 2 min 0 min 203 W/m² 19,3 km/h (3 Bft) 97,87 %
01.02.2026 13:00 7,7 °C 8,9 °C 4,4 °C 89 % 1007,0 hPa 0,0 l/m² 2 min 0 min 194 W/m² 19,3 km/h (3 Bft) 97,30 %
01.02.2026 13:02 7,7 °C 8,9 °C 4,4 °C 88 % 1007,0 hPa 0,0 l/m² 2 min 0 min 190 W/m² 29,0 km/h (5 Bft) 98,00 %
01.02.2026 13:04 7,7 °C 8,3 °C 4,4 °C 88 % 1007,0 hPa 0,0 l/m² 0 min 0 min 182 W/m² 16,1 km/h (3 Bft) 93,62 %
01.02.2026 13:06 7,7 °C 8,3 °C 3,9 °C 88 % 1007,0 hPa 0,0 l/m² 0 min 0 min 181 W/m² 22,5 km/h (4 Bft) 51,11 %
01.02.2026 13:08 7,7 °C 8,3 °C 4,4 °C 88 % 1007,0 hPa 0,0 l/m² 0 min 0 min 182 W/m² 19,3 km/h (3 Bft) 93,62 %
01.02.2026 13:10 7,7 °C 8,3 °C 4,4 °C 88 % 1007,0 hPa 0,0 l/m² 0 min 0 min 179 W/m² 19,3 km/h (3 Bft) 93,62 %
01.02.2026 13:12 7,7 °C 8,3 °C 3,9 °C 88 % 1007,0 hPa 0,0 l/m² 0 min 0 min 176 W/m² 25,7 km/h (4 Bft) 95,74 %
01.02.2026 13:14 7,7 °C 7,8 °C 3,9 °C 88 % 1006,9 hPa 0,0 l/m² 0 min 0 min 184 W/m² 22,5 km/h (4 Bft) 95,74 %
01.02.2026 13:16 7,6 °C 7,8 °C 3,9 °C 88 % 1006,9 hPa 0,0 l/m² 2 min 0 min 194 W/m² 22,5 km/h (4 Bft) 95,65 %
01.02.2026 13:18 7,6 °C 7,8 °C 3,9 °C 88 % 1006,9 hPa 0,0 l/m² 2 min 0 min 185 W/m² 22,5 km/h (4 Bft) 94,44 %
01.02.2026 13:20 7,6 °C 7,8 °C 3,9 °C 88 % 1006,9 hPa 0,0 l/m² 0 min 0 min 170 W/m² 16,1 km/h (3 Bft) 97,22 %
01.02.2026 13:22 7,6 °C 7,8 °C 3,9 °C 88 % 1006,9 hPa 0,0 l/m² 0 min 0 min 162 W/m² 22,5 km/h (4 Bft) 95,92 %
01.02.2026 13:24 7,6 °C 7,8 °C 3,9 °C 88 % 1006,9 hPa 0,0 l/m² 0 min 0 min 168 W/m² 19,3 km/h (3 Bft) 91,84 %
01.02.2026 13:26 7,6 °C 7,8 °C 3,9 °C 88 % 1006,8 hPa 0,0 l/m² 0 min 0 min 174 W/m² 22,5 km/h (4 Bft) 91,67 %
01.02.2026 13:28 7,6 °C 7,8 °C 3,9 °C 88 % 1006,8 hPa 0,0 l/m² 0 min 0 min 175 W/m² 25,7 km/h (4 Bft) 95,74 %
01.02.2026 13:30 7,6 °C 7,8 °C 3,9 °C 88 % 1006,7 hPa 0,0 l/m² 0 min 0 min 175 W/m² 16,1 km/h (3 Bft) 93,75 %
01.02.2026 13:32 7,6 °C 7,8 °C 3,9 °C 88 % 1006,7 hPa 0,0 l/m² 0 min 0 min 179 W/m² 22,5 km/h (4 Bft) 95,74 %
01.02.2026 13:34 7,6 °C 7,8 °C 3,9 °C 88 % 1006,7 hPa 0,0 l/m² 2 min 0 min 184 W/m² 12,9 km/h (3 Bft) 95,92 %
01.02.2026 13:36 7,6 °C 8,3 °C 3,9 °C 88 % 1006,6 hPa 0,0 l/m² 2 min 0 min 189 W/m² 22,5 km/h (4 Bft) 95,74 %
01.02.2026 13:38 7,6 °C 8,3 °C 3,9 °C 88 % 1006,6 hPa 0,0 l/m² 2 min 0 min 195 W/m² 19,3 km/h (3 Bft) 93,62 %
01.02.2026 13:40 7,6 °C 8,3 °C 3,9 °C 88 % 1006,6 hPa 0,0 l/m² 2 min 0 min 195 W/m² 16,1 km/h (3 Bft) 94,44 %
01.02.2026 13:42 7,7 °C 8,3 °C 3,9 °C 88 % 1006,6 hPa 0,0 l/m² 2 min 0 min 183 W/m² 16,1 km/h (3 Bft) 95,65 %
01.02.2026 13:44 7,7 °C 8,3 °C 4,4 °C 88 % 1006,6 hPa 0,0 l/m² 0 min 0 min 173 W/m² 19,3 km/h (3 Bft) 95,74 %
01.02.2026 13:46 7,7 °C 8,3 °C 4,4 °C 88 % 1006,5 hPa 0,0 l/m² 0 min 0 min 169 W/m² 12,9 km/h (3 Bft) 98,15 %
01.02.2026 13:48 7,7 °C 8,3 °C 4,4 °C 88 % 1006,5 hPa 0,0 l/m² 0 min 0 min 164 W/m² 16,1 km/h (3 Bft) 97,92 %
01.02.2026 13:50 7,8 °C 8,3 °C 4,4 °C 88 % 1006,5 hPa 0,0 l/m² 0 min 0 min 159 W/m² 16,1 km/h (3 Bft) 95,65 %
01.02.2026 13:52 7,8 °C 8,3 °C 4,4 °C 88 % 1006,5 hPa 0,0 l/m² 0 min 0 min 150 W/m² 19,3 km/h (3 Bft) 95,92 %
01.02.2026 13:54 7,8 °C 8,3 °C 3,9 °C 88 % 1006,5 hPa 0,0 l/m² 0 min 0 min 148 W/m² 19,3 km/h (3 Bft) 97,96 %
01.02.2026 13:56 7,8 °C 8,3 °C 3,9 °C 88 % 1006,5 hPa 0,0 l/m² 0 min 0 min 151 W/m² 12,9 km/h (3 Bft) 97,14 %
01.02.2026 13:58 7,8 °C 8,3 °C 3,9 °C 88 % 1006,5 hPa 0,0 l/m² 0 min 0 min 158 W/m² 16,1 km/h (3 Bft) 93,62 %
01.02.2026 14:00 7,8 °C 8,3 °C 3,9 °C 88 % 1006,5 hPa 0,0 l/m² 0 min 0 min 161 W/m² 19,3 km/h (3 Bft) 96,30 %
01.02.2026 14:02 7,8 °C 7,8 °C 3,9 °C 88 % 1006,5 hPa 0,0 l/m² 0 min 0 min 154 W/m² 25,7 km/h (4 Bft) 97,92 %
01.02.2026 14:04 7,8 °C 8,3 °C 3,9 °C 88 % 1006,4 hPa 0,0 l/m² 0 min 0 min 148 W/m² 16,1 km/h (3 Bft) 97,96 %
01.02.2026 14:06 7,8 °C 8,3 °C 3,9 °C 88 % 1006,4 hPa 0,0 l/m² 0 min 0 min 153 W/m² 19,3 km/h (3 Bft) 97,96 %
01.02.2026 14:08 7,8 °C 8,3 °C 3,9 °C 88 % 1006,4 hPa 0,0 l/m² 0 min 0 min 158 W/m² 19,3 km/h (3 Bft) 97,37 %
01.02.2026 14:10 7,9 °C 8,3 °C 3,9 °C 88 % 1006,4 hPa 0,0 l/m² 0 min 0 min 165 W/m² 12,9 km/h (3 Bft) 97,87 %
01.02.2026 14:12 7,9 °C 8,3 °C 3,9 °C 88 % 1006,4 hPa 0,0 l/m² 2 min 0 min 180 W/m² 19,3 km/h (3 Bft) 95,74 %
01.02.2026 14:14 7,9 °C 8,3 °C 3,9 °C 88 % 1006,3 hPa 0,0 l/m² 2 min 0 min 182 W/m² 16,1 km/h (3 Bft) 96,30 %
01.02.2026 14:16 7,9 °C 8,3 °C 4,4 °C 88 % 1006,3 hPa 0,0 l/m² 2 min 0 min 178 W/m² 19,3 km/h (3 Bft) 97,87 %
01.02.2026 14:18 7,9 °C 8,3 °C 4,4 °C 88 % 1006,3 hPa 0,0 l/m² 2 min 0 min 173 W/m² 16,1 km/h (3 Bft) 97,37 %
01.02.2026 14:20 7,9 °C 8,3 °C 4,4 °C 88 % 1006,2 hPa 0,0 l/m² 0 min 0 min 162 W/m² 16,1 km/h (3 Bft) 97,92 %
01.02.2026 14:22 8,0 °C 8,3 °C 4,4 °C 88 % 1006,2 hPa 0,0 l/m² 0 min 0 min 155 W/m² 22,5 km/h (4 Bft) 93,75 %
01.02.2026 14:24 8,0 °C 8,3 °C 4,4 °C 88 % 1006,2 hPa 0,0 l/m² 0 min 0 min 160 W/m² 16,1 km/h (3 Bft) 95,92 %
01.02.2026 14:26 8,0 °C 8,3 °C 4,4 °C 88 % 1006,2 hPa 0,0 l/m² 2 min 0 min 165 W/m² 16,1 km/h (3 Bft) 97,83 %
01.02.2026 14:28 8,0 °C 8,3 °C 4,4 °C 87 % 1006,1 hPa 0,0 l/m² 0 min 0 min 157 W/m² 19,3 km/h (3 Bft) 100,00 %
01.02.2026 14:30 8,1 °C 8,3 °C 4,4 °C 87 % 1006,1 hPa 0,0 l/m² 0 min 0 min 156 W/m² 16,1 km/h (3 Bft) 95,24 %
01.02.2026 14:32 8,1 °C 8,3 °C 4,4 °C 87 % 1006,1 hPa 0,0 l/m² 2 min 0 min 156 W/m² 19,3 km/h (3 Bft) 97,92 %
01.02.2026 14:34 8,1 °C 8,3 °C 4,4 °C 87 % 1006,1 hPa 0,0 l/m² 2 min 0 min 155 W/m² 19,3 km/h (3 Bft) 95,92 %
01.02.2026 14:36 8,1 °C 8,3 °C 4,4 °C 87 % 1006,1 hPa 0,0 l/m² 2 min 0 min 165 W/m² 16,1 km/h (3 Bft) 100,00 %
01.02.2026 14:38 8,1 °C 8,9 °C 4,4 °C 87 % 1006,0 hPa 0,0 l/m² 2 min 0 min 201 W/m² 16,1 km/h (3 Bft) 100,00 %
01.02.2026 14:40 8,1 °C 9,4 °C 4,4 °C 87 % 1006,1 hPa 0,0 l/m² 2 min 0 min 214 W/m² 12,9 km/h (3 Bft) 95,74 %
01.02.2026 14:42 8,2 °C 9,4 °C 4,4 °C 87 % 1006,1 hPa 0,0 l/m² 2 min 0 min 185 W/m² 16,1 km/h (3 Bft) 100,00 %
01.02.2026 14:44 8,2 °C 9,4 °C 4,4 °C 87 % 1006,0 hPa 0,0 l/m² 2 min 0 min 173 W/m² 19,3 km/h (3 Bft) 100,00 %
01.02.2026 14:46 8,2 °C 8,9 °C 4,4 °C 87 % 1006,0 hPa 0,0 l/m² 2 min 0 min 166 W/m² 22,5 km/h (4 Bft) 100,00 %
01.02.2026 14:48 8,2 °C 9,4 °C 4,4 °C 87 % 1005,9 hPa 0,0 l/m² 2 min 0 min 197 W/m² 9,7 km/h (2 Bft) 100,00 %
01.02.2026 14:50 8,2 °C 8,9 °C 4,4 °C 87 % 1005,9 hPa 0,0 l/m² 2 min 0 min 148 W/m² 22,5 km/h (4 Bft) 100,00 %
01.02.2026 14:52 8,2 °C 8,9 °C 4,4 °C 87 % 1005,9 hPa 0,0 l/m² 0 min 0 min 124 W/m² 19,3 km/h (3 Bft) 100,00 %
01.02.2026 14:54 8,2 °C 8,3 °C 3,9 °C 87 % 1005,9 hPa 0,0 l/m² 0 min 0 min 112 W/m² 16,1 km/h (3 Bft) 100,00 %
01.02.2026 14:56 8,2 °C 8,3 °C 3,9 °C 87 % 1006,0 hPa 0,0 l/m² 0 min 0 min 101 W/m² 19,3 km/h (3 Bft) 100,00 %
01.02.2026 14:58 8,2 °C 8,3 °C 3,9 °C 87 % 1005,9 hPa 0,0 l/m² 0 min 0 min 98 W/m² 22,5 km/h (4 Bft) 100,00 %
01.02.2026 15:00 8,2 °C 8,3 °C 3,9 °C 87 % 1005,9 hPa 0,0 l/m² 0 min 0 min 98 W/m² 16,1 km/h (3 Bft) 100,00 %
01.02.2026 15:02 8,2 °C 7,8 °C 3,9 °C 87 % 1005,9 hPa 0,0 l/m² 0 min 0 min 93 W/m² 25,7 km/h (4 Bft) 100,00 %
01.02.2026 15:04 8,2 °C 7,8 °C 3,9 °C 87 % 1005,9 hPa 0,0 l/m² 0 min 0 min 81 W/m² 19,3 km/h (3 Bft) 100,00 %
01.02.2026 15:06 8,2 °C 7,8 °C 3,9 °C 87 % 1005,9 hPa 0,0 l/m² 0 min 0 min 75 W/m² 16,1 km/h (3 Bft) 98,15 %
01.02.2026 15:08 8,2 °C 7,8 °C 3,9 °C 87 % 1005,9 hPa 0,0 l/m² 0 min 0 min 76 W/m² 6,4 km/h (2 Bft) 100,00 %
01.02.2026 15:10 8,1 °C 7,8 °C 3,9 °C 87 % 1005,8 hPa 0,0 l/m² 0 min 0 min 78 W/m² 16,1 km/h (3 Bft) 100,00 %
01.02.2026 15:12 8,1 °C 7,8 °C 3,9 °C 87 % 1005,8 hPa 0,0 l/m² 0 min 0 min 79 W/m² 25,7 km/h (4 Bft) 100,00 %
01.02.2026 15:14 8,1 °C 7,8 °C 3,9 °C 87 % 1005,8 hPa 0,0 l/m² 0 min 0 min 83 W/m² 19,3 km/h (3 Bft) 100,00 %
01.02.2026 15:16 8,1 °C 7,8 °C 3,9 °C 87 % 1005,7 hPa 0,0 l/m² 0 min 0 min 91 W/m² 19,3 km/h (3 Bft) 100,00 %
01.02.2026 15:18 8,1 °C 7,8 °C 3,9 °C 87 % 1005,7 hPa 0,0 l/m² 0 min 0 min 100 W/m² 12,9 km/h (3 Bft) 100,00 %
01.02.2026 15:20 8,1 °C 7,8 °C 3,9 °C 87 % 1005,7 hPa 0,0 l/m² 0 min 0 min 98 W/m² 22,5 km/h (4 Bft) 100,00 %
01.02.2026 15:22 8,1 °C 7,8 °C 3,9 °C 87 % 1005,7 hPa 0,0 l/m² 0 min 0 min 105 W/m² 16,1 km/h (3 Bft) 100,00 %
01.02.2026 15:24 8,1 °C 8,3 °C 3,9 °C 87 % 1005,6 hPa 0,0 l/m² 2 min 0 min 120 W/m² 22,5 km/h (4 Bft) 100,00 %
01.02.2026 15:26 8,1 °C 8,3 °C 3,9 °C 87 % 1005,6 hPa 0,0 l/m² 2 min 0 min 160 W/m² 19,3 km/h (3 Bft) 100,00 %
01.02.2026 15:28 8,1 °C 8,3 °C 3,9 °C 87 % 1005,7 hPa 0,0 l/m² 2 min 0 min 136 W/m² 16,1 km/h (3 Bft) 100,00 %
01.02.2026 15:30 8,1 °C 8,3 °C 3,9 °C 87 % 1005,6 hPa 0,0 l/m² 2 min 0 min 121 W/m² 12,9 km/h (3 Bft) 100,00 %
01.02.2026 15:32 8,1 °C 8,3 °C 3,9 °C 87 % 1005,6 hPa 0,0 l/m² 2 min 0 min 116 W/m² 19,3 km/h (3 Bft) 100,00 %
01.02.2026 15:34 8,1 °C 8,3 °C 3,9 °C 87 % 1005,7 hPa 0,0 l/m² 2 min 0 min 117 W/m² 16,1 km/h (3 Bft) 100,00 %
01.02.2026 15:36 8,1 °C 8,3 °C 3,9 °C 87 % 1005,6 hPa 0,0 l/m² 2 min 0 min 114 W/m² 16,1 km/h (3 Bft) 100,00 %
01.02.2026 15:38 8,1 °C 8,3 °C 3,9 °C 87 % 1005,6 hPa 0,0 l/m² 2 min 0 min 122 W/m² 16,1 km/h (3 Bft) 97,87 %
01.02.2026 15:40 8,1 °C 7,8 °C 3,9 °C 87 % 1005,6 hPa 0,0 l/m² 2 min 0 min 110 W/m² 19,3 km/h (3 Bft) 95,83 %
01.02.2026 15:42 8,1 °C 8,3 °C 3,9 °C 87 % 1005,6 hPa 0,0 l/m² 0 min 0 min 100 W/m² 22,5 km/h (4 Bft) 95,74 %
01.02.2026 15:44 8,1 °C 7,8 °C 3,9 °C 87 % 1005,6 hPa 0,0 l/m² 0 min 0 min 97 W/m² 16,1 km/h (3 Bft) 95,74 %
01.02.2026 15:46 8,1 °C 7,8 °C 3,9 °C 87 % 1005,6 hPa 0,0 l/m² 0 min 0 min 97 W/m² 19,3 km/h (3 Bft) 97,87 %
01.02.2026 15:48 8,1 °C 7,8 °C 3,9 °C 87 % 1005,6 hPa 0,0 l/m² 0 min 0 min 92 W/m² 22,5 km/h (4 Bft) 97,37 %
01.02.2026 15:50 8,1 °C 7,8 °C 3,9 °C 87 % 1005,6 hPa 0,0 l/m² 0 min 0 min 81 W/m² 12,9 km/h (3 Bft) 96,23 %
01.02.2026 15:52 8,1 °C 7,8 °C 3,9 °C 87 % 1005,6 hPa 0,0 l/m² 0 min 0 min 70 W/m² 16,1 km/h (3 Bft) 97,92 %
01.02.2026 15:54 8,1 °C 7,8 °C 3,9 °C 87 % 1005,7 hPa 0,0 l/m² 0 min 0 min 61 W/m² 12,9 km/h (3 Bft) 98,00 %
01.02.2026 15:56 8,1 °C 7,8 °C 3,9 °C 87 % 1005,6 hPa 0,0 l/m² 0 min 0 min 54 W/m² 16,1 km/h (3 Bft) 97,92 %
01.02.2026 15:58 8,1 °C 7,2 °C 3,9 °C 87 % 1005,7 hPa 0,0 l/m² 0 min 0 min 50 W/m² 16,1 km/h (3 Bft) 97,83 %
01.02.2026 16:00 8,1 °C 7,2 °C 3,9 °C 87 % 1005,7 hPa 0,0 l/m² 0 min 0 min 48 W/m² 22,5 km/h (4 Bft) 94,44 %
01.02.2026 16:02 8,0 °C 7,2 °C 3,9 °C 87 % 1005,7 hPa 0,0 l/m² 0 min 0 min 46 W/m² 19,3 km/h (3 Bft) 97,87 %
01.02.2026 16:04 8,0 °C 7,2 °C 3,9 °C 87 % 1005,7 hPa 0,0 l/m² 0 min 0 min 42 W/m² 22,5 km/h (4 Bft) 95,74 %
01.02.2026 16:06 7,9 °C 7,2 °C 3,3 °C 87 % 1005,7 hPa 0,0 l/m² 0 min 0 min 40 W/m² 16,1 km/h (3 Bft) 93,85 %
01.02.2026 16:08 7,9 °C 7,2 °C 3,3 °C 87 % 1005,6 hPa 0,0 l/m² 0 min 0 min 39 W/m² 16,1 km/h (3 Bft) 90,24 %
01.02.2026 16:10 7,9 °C 7,2 °C 3,3 °C 87 % 1005,6 hPa 0,0 l/m² 0 min 0 min 39 W/m² 19,3 km/h (3 Bft) 93,62 %
01.02.2026 16:12 7,9 °C 7,2 °C 3,3 °C 87 % 1005,6 hPa 0,0 l/m² 0 min 0 min 40 W/m² 16,1 km/h (3 Bft) 94,29 %
01.02.2026 16:14 7,9 °C 7,2 °C 3,3 °C 87 % 1005,6 hPa 0,0 l/m² 0 min 0 min 38 W/m² 19,3 km/h (3 Bft) 91,30 %
01.02.2026 16:16 7,8 °C 7,2 °C 3,3 °C 87 % 1005,6 hPa 0,0 l/m² 0 min 0 min 35 W/m² 19,3 km/h (3 Bft) 91,49 %
01.02.2026 16:18 7,8 °C 7,2 °C 3,3 °C 87 % 1005,6 hPa 0,0 l/m² 0 min 0 min 32 W/m² 16,1 km/h (3 Bft) 93,62 %
01.02.2026 16:20 7,8 °C 7,2 °C 3,3 °C 87 % 1005,6 hPa 0,0 l/m² 0 min 0 min 31 W/m² 16,1 km/h (3 Bft) 93,62 %
01.02.2026 16:22 7,8 °C 7,2 °C 3,3 °C 87 % 1005,7 hPa 0,0 l/m² 0 min 0 min 28 W/m² 22,5 km/h (4 Bft) 92,59 %
01.02.2026 16:24 7,8 °C 7,2 °C 3,3 °C 87 % 1005,6 hPa 0,0 l/m² 0 min 0 min 26 W/m² 12,9 km/h (3 Bft) 95,92 %
01.02.2026 16:26 7,8 °C 7,2 °C 3,3 °C 87 % 1005,7 hPa 0,0 l/m² 0 min 0 min 24 W/m² 9,7 km/h (2 Bft) 95,74 %
01.02.2026 16:28 7,8 °C 7,2 °C 3,3 °C 87 % 1005,7 hPa 0,0 l/m² 0 min 0 min 22 W/m² 16,1 km/h (3 Bft) 95,92 %
01.02.2026 16:30 7,7 °C 7,2 °C 3,3 °C 87 % 1005,7 hPa 0,0 l/m² 0 min 0 min 21 W/m² 19,3 km/h (3 Bft) 95,74 %
01.02.2026 16:32 7,7 °C 7,2 °C 3,3 °C 87 % 1005,7 hPa 0,0 l/m² 0 min 0 min 23 W/m² 12,9 km/h (3 Bft) 94,74 %
01.02.2026 16:34 7,7 °C 6,7 °C 3,3 °C 87 % 1005,7 hPa 0,0 l/m² 0 min 0 min 23 W/m² 16,1 km/h (3 Bft) 95,92 %
01.02.2026 16:36 7,7 °C 6,7 °C 3,3 °C 87 % 1005,6 hPa 0,0 l/m² 0 min 0 min 23 W/m² 22,5 km/h (4 Bft) 93,62 %
01.02.2026 16:38 7,7 °C 6,7 °C 3,3 °C 87 % 1005,6 hPa 0,0 l/m² 0 min 0 min 23 W/m² 16,1 km/h (3 Bft) 95,74 %
01.02.2026 16:40 7,6 °C 6,7 °C 3,3 °C 88 % 1005,6 hPa 0,0 l/m² 0 min 0 min 21 W/m² 19,3 km/h (3 Bft) 93,62 %
01.02.2026 16:42 7,6 °C 6,7 °C 3,3 °C 88 % 1005,6 hPa 0,0 l/m² 0 min 0 min 19 W/m² 22,5 km/h (4 Bft) 100,00 %
01.02.2026 16:44 7,6 °C 6,7 °C 2,8 °C 88 % 1005,6 hPa 0,0 l/m² 0 min 0 min 17 W/m² 19,3 km/h (3 Bft) 97,87 %
01.02.2026 16:46 7,6 °C 6,7 °C 2,8 °C 88 % 1005,6 hPa 0,0 l/m² 0 min 0 min 15 W/m² 19,3 km/h (3 Bft) 97,87 %
01.02.2026 16:48 7,6 °C 6,7 °C 2,8 °C 88 % 1005,6 hPa 0,0 l/m² 0 min 0 min 12 W/m² 22,5 km/h (4 Bft) 97,62 %
01.02.2026 16:50 7,5 °C 6,7 °C 2,8 °C 88 % 1005,5 hPa 0,0 l/m² 0 min 0 min 9 W/m² 19,3 km/h (3 Bft) 97,96 %
01.02.2026 16:52 7,5 °C 6,7 °C 2,8 °C 88 % 1005,5 hPa 0,0 l/m² 0 min 0 min 7 W/m² 16,1 km/h (3 Bft) 100,00 %
01.02.2026 16:54 7,4 °C 6,7 °C 2,8 °C 88 % 1005,5 hPa 0,0 l/m² 0 min 0 min 9 W/m² 25,7 km/h (4 Bft) 100,00 %
01.02.2026 16:56 7,4 °C 6,7 °C 2,8 °C 88 % 1005,6 hPa 0,0 l/m² 0 min 0 min 11 W/m² 16,1 km/h (3 Bft) 100,00 %
01.02.2026 16:58 7,4 °C 6,7 °C 2,8 °C 89 % 1005,6 hPa 0,0 l/m² 0 min 0 min 11 W/m² 19,3 km/h (3 Bft) 100,00 %
01.02.2026 17:00 7,4 °C 6,7 °C 2,8 °C 89 % 1005,5 hPa 0,0 l/m² 0 min 0 min 12 W/m² 25,7 km/h (4 Bft) 100,00 %
01.02.2026 17:02 7,3 °C 6,7 °C 2,8 °C 89 % 1005,5 hPa 0,0 l/m² 0 min 0 min 12 W/m² 19,3 km/h (3 Bft) 96,23 %
01.02.2026 17:04 7,3 °C 6,7 °C 2,8 °C 89 % 1005,5 hPa 0,0 l/m² 0 min 0 min 11 W/m² 16,1 km/h (3 Bft) 100,00 %
01.02.2026 17:06 7,3 °C 6,7 °C 2,8 °C 89 % 1005,5 hPa 0,0 l/m² 0 min 0 min 11 W/m² 12,9 km/h (3 Bft) 98,00 %
01.02.2026 17:08 7,3 °C 6,7 °C 2,8 °C 89 % 1005,6 hPa 0,0 l/m² 0 min 0 min 11 W/m² 16,1 km/h (3 Bft) 100,00 %
01.02.2026 17:10 7,2 °C 6,7 °C 2,8 °C 89 % 1005,6 hPa 0,0 l/m² 0 min 0 min 10 W/m² 19,3 km/h (3 Bft) 97,87 %
01.02.2026 17:12 7,2 °C 6,7 °C 2,8 °C 89 % 1005,6 hPa 0,0 l/m² 0 min 0 min 6 W/m² 16,1 km/h (3 Bft) 100,00 %
01.02.2026 17:14 7,2 °C 6,7 °C 2,8 °C 89 % 1005,6 hPa 0,0 l/m² 0 min 0 min 5 W/m² 19,3 km/h (3 Bft) 97,92 %
01.02.2026 17:16 7,2 °C 6,1 °C 2,8 °C 89 % 1005,6 hPa 0,0 l/m² 0 min 0 min 4 W/m² 16,1 km/h (3 Bft) 100,00 %
01.02.2026 17:18 7,2 °C 6,1 °C 2,8 °C 89 % 1005,6 hPa 0,0 l/m² 0 min 0 min 0 W/m² 22,5 km/h (4 Bft) 100,00 %
01.02.2026 17:20 7,1 °C 6,1 °C 2,8 °C 89 % 1005,6 hPa 0,0 l/m² 0 min 0 min 0 W/m² 16,1 km/h (3 Bft) 97,96 %
01.02.2026 17:22 7,1 °C 6,1 °C 2,8 °C 89 % 1005,6 hPa 0,0 l/m² 0 min 0 min 0 W/m² 25,7 km/h (4 Bft) 100,00 %
01.02.2026 17:24 7,1 °C 6,1 °C 2,8 °C 89 % 1005,6 hPa 0,0 l/m² 0 min 0 min 0 W/m² 19,3 km/h (3 Bft) 97,96 %
01.02.2026 17:26 7,1 °C 6,1 °C 2,8 °C 89 % 1005,5 hPa 0,0 l/m² 0 min 0 min 0 W/m² 22,5 km/h (4 Bft) 100,00 %
01.02.2026 17:28 7,1 °C 6,1 °C 2,8 °C 89 % 1005,6 hPa 0,0 l/m² 0 min 0 min 0 W/m² 12,9 km/h (3 Bft) 100,00 %
01.02.2026 17:30 7,0 °C 6,1 °C 2,8 °C 89 % 1005,6 hPa 0,0 l/m² 0 min 0 min 0 W/m² 12,9 km/h (3 Bft) 100,00 %
01.02.2026 17:32 7,0 °C 6,1 °C 2,2 °C 89 % 1005,6 hPa 0,0 l/m² 0 min 0 min 0 W/m² 12,9 km/h (3 Bft) 100,00 %
01.02.2026 17:34 6,9 °C 6,1 °C 2,2 °C 89 % 1005,6 hPa 0,0 l/m² 0 min 0 min 0 W/m² 12,9 km/h (3 Bft) 100,00 %
01.02.2026 17:36 6,9 °C 6,1 °C 2,2 °C 89 % 1005,6 hPa 0,0 l/m² 0 min 0 min 0 W/m² 12,9 km/h (3 Bft) 97,96 %
01.02.2026 17:38 6,9 °C 6,1 °C 2,2 °C 89 % 1005,5 hPa 0,0 l/m² 0 min 0 min 0 W/m² 12,9 km/h (3 Bft) 100,00 %
01.02.2026 17:40 6,9 °C 6,1 °C 2,2 °C 89 % 1005,5 hPa 0,0 l/m² 0 min 0 min 0 W/m² 12,9 km/h (3 Bft) 100,00 %
01.02.2026 17:42 6,8 °C 6,1 °C 2,2 °C 89 % 1005,5 hPa 0,0 l/m² 0 min 0 min 0 W/m² 16,1 km/h (3 Bft) 100,00 %
01.02.2026 17:44 6,8 °C 6,1 °C 2,2 °C 89 % 1005,5 hPa 0,0 l/m² 0 min 0 min 0 W/m² 12,9 km/h (3 Bft) 97,87 %
01.02.2026 17:46 6,8 °C 5,6 °C 2,2 °C 89 % 1005,5 hPa 0,0 l/m² 0 min 0 min 0 W/m² 16,1 km/h (3 Bft) 97,56 %
01.02.2026 17:48 6,7 °C 5,6 °C 2,2 °C 89 % 1005,4 hPa 0,0 l/m² 0 min 0 min 0 W/m² 19,3 km/h (3 Bft) 95,83 %
01.02.2026 17:50 6,7 °C 5,6 °C 2,2 °C 89 % 1005,5 hPa 0,0 l/m² 0 min 0 min 0 W/m² 12,9 km/h (3 Bft) 100,00 %
01.02.2026 17:52 6,7 °C 5,6 °C 2,2 °C 89 % 1005,5 hPa 0,0 l/m² 0 min 0 min 0 W/m² 16,1 km/h (3 Bft) 100,00 %
01.02.2026 17:54 6,6 °C 5,6 °C 2,2 °C 89 % 1005,5 hPa 0,0 l/m² 0 min 0 min 0 W/m² 12,9 km/h (3 Bft) 100,00 %
01.02.2026 17:56 6,6 °C 5,6 °C 2,2 °C 89 % 1005,5 hPa 0,0 l/m² 0 min 0 min 0 W/m² 12,9 km/h (3 Bft) 100,00 %
01.02.2026 17:58 6,6 °C 5,6 °C 2,2 °C 90 % 1005,4 hPa 0,0 l/m² 0 min 0 min 0 W/m² 12,9 km/h (3 Bft) 97,96 %
01.02.2026 18:00 6,5 °C 5,6 °C 2,2 °C 90 % 1005,5 hPa 0,0 l/m² 0 min 0 min 0 W/m² 12,9 km/h (3 Bft) 100,00 %
01.02.2026 18:02 6,5 °C 5,6 °C 2,2 °C 90 % 1005,5 hPa 0,0 l/m² 0 min 0 min 0 W/m² 12,9 km/h (3 Bft) 98,00 %
01.02.2026 18:04 6,5 °C 5,6 °C 2,2 °C 90 % 1005,5 hPa 0,0 l/m² 0 min 0 min 0 W/m² 16,1 km/h (3 Bft) 95,83 %
01.02.2026 18:07 6,4 °C 5,6 °C 2,2 °C 90 % 1005,5 hPa 0,0 l/m² 0 min 0 min 0 W/m² 16,1 km/h (3 Bft) 96,10 %
01.02.2026 18:08 6,4 °C 5,6 °C 2,2 °C 90 % 1005,5 hPa 0,0 l/m² 0 min 0 min 0 W/m² 12,9 km/h (3 Bft) 93,33 %
01.02.2026 18:12 6,3 °C 5,6 °C 1,7 °C 90 % 1005,6 hPa 0,0 l/m² 0 min 0 min 0 W/m² 12,9 km/h (3 Bft) 98,21 %
01.02.2026 18:14 6,3 °C 5,6 °C 1,7 °C 90 % 1005,5 hPa 0,0 l/m² 0 min 0 min 0 W/m² 6,4 km/h (2 Bft) 97,92 %
01.02.2026 18:16 6,3 °C 5,0 °C 1,7 °C 90 % 1005,5 hPa 0,0 l/m² 0 min 0 min 0 W/m² 6,4 km/h (2 Bft) 97,92 %
01.02.2026 18:18 6,2 °C 5,0 °C 1,7 °C 90 % 1005,5 hPa 0,0 l/m² 0 min 0 min 0 W/m² 6,4 km/h (2 Bft) 97,22 %
01.02.2026 18:20 6,2 °C 5,0 °C 1,7 °C 90 % 1005,5 hPa 0,0 l/m² 0 min 0 min 0 W/m² 6,4 km/h (2 Bft) 97,96 %
01.02.2026 18:22 6,2 °C 5,0 °C 1,7 °C 90 % 1005,4 hPa 0,0 l/m² 0 min 0 min 0 W/m² 12,9 km/h (3 Bft) 95,74 %
01.02.2026 18:24 6,1 °C 5,0 °C 1,7 °C 90 % 1005,4 hPa 0,0 l/m² 0 min 0 min 0 W/m² 9,7 km/h (2 Bft) 97,87 %
01.02.2026 18:26 6,1 °C 5,0 °C 1,7 °C 90 % 1005,5 hPa 0,0 l/m² 0 min 0 min 0 W/m² 12,9 km/h (3 Bft) 95,74 %
01.02.2026 18:28 6,1 °C 5,0 °C 1,7 °C 90 % 1005,5 hPa 0,0 l/m² 0 min 0 min 0 W/m² 6,4 km/h (2 Bft) 100,00 %
01.02.2026 18:30 6,1 °C 5,0 °C 1,7 °C 90 % 1005,5 hPa 0,0 l/m² 0 min 0 min 0 W/m² 12,9 km/h (3 Bft) 98,11 %
01.02.2026 18:32 6,1 °C 5,0 °C 1,7 °C 90 % 1005,5 hPa 0,0 l/m² 0 min 0 min 0 W/m² 6,4 km/h (2 Bft) 97,96 %
01.02.2026 18:34 6,1 °C 5,0 °C 1,7 °C 90 % 1005,5 hPa 0,0 l/m² 0 min 0 min 0 W/m² 6,4 km/h (2 Bft) 97,22 %
01.02.2026 18:36 6,1 °C 5,6 °C 1,7 °C 91 % 1005,5 hPa 0,0 l/m² 0 min 0 min 0 W/m² 12,9 km/h (3 Bft) 95,74 %
01.02.2026 18:38 6,1 °C 5,6 °C 1,7 °C 91 % 1005,5 hPa 0,0 l/m² 0 min 0 min 0 W/m² 6,4 km/h (2 Bft) 93,62 %
01.02.2026 18:40 6,0 °C 5,6 °C 1,7 °C 91 % 1005,5 hPa 0,0 l/m² 0 min 0 min 0 W/m² 12,9 km/h (3 Bft) 95,92 %
01.02.2026 18:42 6,0 °C 5,6 °C 1,7 °C 91 % 1005,5 hPa 0,0 l/m² 0 min 0 min 0 W/m² 6,4 km/h (2 Bft) 95,74 %
01.02.2026 18:44 6,0 °C 5,6 °C 1,7 °C 91 % 1005,5 hPa 0,0 l/m² 0 min 0 min 0 W/m² 12,9 km/h (3 Bft) 95,74 %
01.02.2026 18:46 6,0 °C 5,6 °C 1,7 °C 91 % 1005,5 hPa 0,0 l/m² 0 min 0 min 0 W/m² 12,9 km/h (3 Bft) 95,65 %
01.02.2026 18:48 6,0 °C 5,6 °C 1,7 °C 91 % 1005,4 hPa 0,0 l/m² 0 min 0 min 0 W/m² 16,1 km/h (3 Bft) 95,74 %
01.02.2026 18:50 6,1 °C 5,6 °C 1,7 °C 91 % 1005,4 hPa 0,0 l/m² 0 min 0 min 0 W/m² 16,1 km/h (3 Bft) 95,74 %
01.02.2026 18:52 6,1 °C 5,6 °C 1,7 °C 91 % 1005,4 hPa 0,0 l/m² 0 min 0 min 0 W/m² 12,9 km/h (3 Bft) 95,74 %
01.02.2026 18:54 6,1 °C 5,6 °C 1,7 °C 91 % 1005,4 hPa 0,0 l/m² 0 min 0 min 0 W/m² 9,7 km/h (2 Bft) 60,38 %
01.02.2026 18:56 6,1 °C 5,6 °C 1,7 °C 91 % 1005,4 hPa 0,0 l/m² 0 min 0 min 0 W/m² 12,9 km/h (3 Bft) 93,18 %
01.02.2026 18:58 6,0 °C 5,0 °C 1,7 °C 91 % 1005,4 hPa 0,0 l/m² 0 min 0 min 0 W/m² 16,1 km/h (3 Bft) 94,74 %
01.02.2026 19:00 6,0 °C 5,0 °C 1,7 °C 91 % 1005,4 hPa 0,0 l/m² 0 min 0 min 0 W/m² 16,1 km/h (3 Bft) 95,74 %
01.02.2026 19:02 6,0 °C 5,0 °C 1,7 °C 91 % 1005,4 hPa 0,0 l/m² 0 min 0 min 0 W/m² 16,1 km/h (3 Bft) 91,84 %
01.02.2026 19:04 6,0 °C 5,0 °C 1,7 °C 91 % 1005,3 hPa 0,0 l/m² 0 min 0 min 0 W/m² 12,9 km/h (3 Bft) 95,83 %
01.02.2026 19:06 6,0 °C 5,0 °C 1,7 °C 91 % 1005,2 hPa 0,0 l/m² 0 min 0 min 0 W/m² 16,1 km/h (3 Bft) 95,74 %
01.02.2026 19:08 6,0 °C 5,6 °C 1,7 °C 91 % 1005,2 hPa 0,0 l/m² 0 min 0 min 0 W/m² 16,1 km/h (3 Bft) 95,65 %
01.02.2026 19:10 6,0 °C 5,6 °C 1,7 °C 91 % 1005,4 hPa 0,0 l/m² 0 min 0 min 0 W/m² 19,3 km/h (3 Bft) 95,74 %
01.02.2026 19:12 6,0 °C 5,6 °C 1,7 °C 92 % 1005,5 hPa 0,0 l/m² 0 min 0 min 0 W/m² 12,9 km/h (3 Bft) 92,45 %
01.02.2026 19:14 6,0 °C 5,6 °C 1,7 °C 92 % 1005,4 hPa 0,0 l/m² 0 min 0 min 0 W/m² 22,5 km/h (4 Bft) 94,59 %
01.02.2026 19:16 6,0 °C 5,6 °C 1,7 °C 92 % 1005,5 hPa 0,0 l/m² 0 min 0 min 0 W/m² 19,3 km/h (3 Bft) 93,62 %
01.02.2026 19:18 6,0 °C 5,6 °C 1,7 °C 92 % 1005,5 hPa 0,0 l/m² 0 min 0 min 0 W/m² 22,5 km/h (4 Bft) 95,74 %
01.02.2026 19:20 6,0 °C 5,6 °C 1,7 °C 92 % 1005,5 hPa 0,0 l/m² 0 min 0 min 0 W/m² 19,3 km/h (3 Bft) 95,92 %
01.02.2026 19:22 6,0 °C 5,0 °C 1,7 °C 92 % 1005,5 hPa 0,0 l/m² 0 min 0 min 0 W/m² 25,7 km/h (4 Bft) 97,92 %
01.02.2026 19:24 6,0 °C 5,0 °C 1,7 °C 92 % 1005,5 hPa 0,0 l/m² 0 min 0 min 0 W/m² 19,3 km/h (3 Bft) 97,87 %
01.02.2026 19:26 6,0 °C 5,0 °C 1,7 °C 92 % 1005,5 hPa 0,0 l/m² 0 min 0 min 0 W/m² 19,3 km/h (3 Bft) 97,87 %
01.02.2026 19:28 6,0 °C 5,0 °C 1,7 °C 92 % 1005,5 hPa 0,0 l/m² 0 min 0 min 0 W/m² 22,5 km/h (4 Bft) 95,74 %
01.02.2026 19:30 6,0 °C 5,0 °C 1,7 °C 92 % 1005,4 hPa 0,0 l/m² 0 min 0 min 0 W/m² 16,1 km/h (3 Bft) 100,00 %
01.02.2026 19:32 5,9 °C 5,0 °C 1,7 °C 92 % 1005,3 hPa 0,0 l/m² 0 min 0 min 0 W/m² 16,1 km/h (3 Bft) 100,00 %
01.02.2026 19:34 5,9 °C 5,0 °C 1,7 °C 92 % 1005,3 hPa 0,0 l/m² 0 min 0 min 0 W/m² 19,3 km/h (3 Bft) 100,00 %
01.02.2026 19:36 5,9 °C 5,0 °C 1,7 °C 92 % 1005,3 hPa 0,0 l/m² 0 min 0 min 0 W/m² 19,3 km/h (3 Bft) 97,96 %
01.02.2026 19:38 5,9 °C 5,0 °C 1,7 °C 92 % 1005,2 hPa 0,0 l/m² 0 min 0 min 0 W/m² 19,3 km/h (3 Bft) 100,00 %
01.02.2026 19:40 5,9 °C 5,0 °C 1,7 °C 92 % 1005,2 hPa 0,0 l/m² 0 min 0 min 0 W/m² 12,9 km/h (3 Bft) 100,00 %
01.02.2026 19:42 5,9 °C 5,0 °C 1,7 °C 92 % 1005,2 hPa 0,0 l/m² 0 min 0 min 0 W/m² 19,3 km/h (3 Bft) 100,00 %
01.02.2026 19:44 5,9 °C 5,0 °C 1,7 °C 92 % 1005,3 hPa 0,0 l/m² 0 min 0 min 0 W/m² 25,7 km/h (4 Bft) 100,00 %
01.02.2026 19:46 5,9 °C 5,0 °C 1,7 °C 92 % 1005,3 hPa 0,0 l/m² 0 min 0 min 0 W/m² 19,3 km/h (3 Bft) 100,00 %
01.02.2026 19:48 5,9 °C 5,0 °C 1,7 °C 92 % 1005,3 hPa 0,0 l/m² 0 min 0 min 0 W/m² 16,1 km/h (3 Bft) 100,00 %
01.02.2026 19:50 5,9 °C 5,0 °C 1,7 °C 92 % 1005,4 hPa 0,0 l/m² 0 min 0 min 0 W/m² 22,5 km/h (4 Bft) 100,00 %
01.02.2026 19:52 5,9 °C 5,0 °C 1,7 °C 92 % 1005,3 hPa 0,0 l/m² 0 min 0 min 0 W/m² 16,1 km/h (3 Bft) 100,00 %
01.02.2026 19:54 5,9 °C 5,0 °C 1,7 °C 92 % 1005,4 hPa 0,0 l/m² 0 min 0 min 0 W/m² 16,1 km/h (3 Bft) 97,92 %
01.02.2026 19:56 5,9 °C 5,0 °C 1,7 °C 92 % 1005,4 hPa 0,0 l/m² 0 min 0 min 0 W/m² 16,1 km/h (3 Bft) 95,65 %
01.02.2026 19:58 5,9 °C 5,0 °C 1,7 °C 93 % 1005,4 hPa 0,0 l/m² 0 min 0 min 0 W/m² 19,3 km/h (3 Bft) 95,74 %
01.02.2026 20:00 5,8 °C 5,0 °C 1,7 °C 93 % 1005,4 hPa 0,0 l/m² 0 min 0 min 0 W/m² 25,7 km/h (4 Bft) 97,87 %
01.02.2026 20:02 5,9 °C 5,0 °C 1,7 °C 93 % 1005,4 hPa 0,0 l/m² 0 min 0 min 0 W/m² 16,1 km/h (3 Bft) 98,15 %
01.02.2026 20:04 5,9 °C 5,0 °C 1,7 °C 93 % 1005,4 hPa 0,0 l/m² 0 min 0 min 0 W/m² 12,9 km/h (3 Bft) 97,87 %
01.02.2026 20:06 5,8 °C 5,0 °C 1,7 °C 93 % 1005,4 hPa 0,0 l/m² 0 min 0 min 0 W/m² 12,9 km/h (3 Bft) 97,92 %
01.02.2026 20:08 5,8 °C 5,0 °C 1,7 °C 93 % 1005,4 hPa 0,0 l/m² 0 min 0 min 0 W/m² 19,3 km/h (3 Bft) 97,44 %
01.02.2026 20:10 5,8 °C 5,0 °C 1,7 °C 93 % 1005,4 hPa 0,0 l/m² 0 min 0 min 0 W/m² 16,1 km/h (3 Bft) 97,87 %
01.02.2026 20:12 5,8 °C 5,0 °C 1,7 °C 93 % 1005,4 hPa 0,0 l/m² 0 min 0 min 0 W/m² 19,3 km/h (3 Bft) 97,62 %
01.02.2026 20:14 5,8 °C 5,0 °C 1,7 °C 93 % 1005,4 hPa 0,0 l/m² 0 min 0 min 0 W/m² 12,9 km/h (3 Bft) 97,92 %
01.02.2026 20:16 5,8 °C 5,0 °C 1,7 °C 93 % 1005,4 hPa 0,0 l/m² 0 min 0 min 0 W/m² 12,9 km/h (3 Bft) 97,92 %
01.02.2026 20:18 5,8 °C 5,0 °C 1,7 °C 93 % 1005,4 hPa 0,0 l/m² 0 min 0 min 0 W/m² 16,1 km/h (3 Bft) 97,96 %
01.02.2026 20:20 5,8 °C 5,0 °C 1,7 °C 93 % 1005,4 hPa 0,0 l/m² 0 min 0 min 0 W/m² 9,7 km/h (2 Bft) 95,74 %
01.02.2026 20:22 5,8 °C 5,0 °C 1,7 °C 93 % 1005,4 hPa 0,0 l/m² 0 min 0 min 0 W/m² 12,9 km/h (3 Bft) 97,87 %
01.02.2026 20:24 5,8 °C 5,0 °C 1,7 °C 93 % 1005,4 hPa 0,0 l/m² 0 min 0 min 0 W/m² 6,4 km/h (2 Bft) 100,00 %
01.02.2026 20:26 5,8 °C 5,0 °C 1,7 °C 93 % 1005,4 hPa 0,0 l/m² 0 min 0 min 0 W/m² 12,9 km/h (3 Bft) 100,00 %
01.02.2026 20:28 5,7 °C 5,0 °C 1,7 °C 93 % 1005,4 hPa 0,0 l/m² 0 min 0 min 0 W/m² 12,9 km/h (3 Bft) 100,00 %
01.02.2026 20:30 5,7 °C 5,0 °C 1,7 °C 93 % 1005,3 hPa 0,0 l/m² 0 min 0 min 0 W/m² 12,9 km/h (3 Bft) 97,22 %
01.02.2026 20:32 5,7 °C 5,0 °C 1,7 °C 93 % 1005,3 hPa 0,0 l/m² 0 min 0 min 0 W/m² 16,1 km/h (3 Bft) 100,00 %
01.02.2026 20:34 5,7 °C 5,0 °C 1,7 °C 93 % 1005,3 hPa 0,0 l/m² 0 min 0 min 0 W/m² 16,1 km/h (3 Bft) 100,00 %
01.02.2026 20:36 5,7 °C 5,0 °C 1,7 °C 93 % 1005,2 hPa 0,0 l/m² 0 min 0 min 0 W/m² 16,1 km/h (3 Bft) 100,00 %
01.02.2026 20:38 5,7 °C 5,0 °C 1,7 °C 93 % 1005,2 hPa 0,0 l/m² 0 min 0 min 0 W/m² 9,7 km/h (2 Bft) 100,00 %
01.02.2026 20:40 5,7 °C 5,0 °C 1,7 °C 93 % 1005,2 hPa 0,0 l/m² 0 min 0 min 0 W/m² 16,1 km/h (3 Bft) 97,87 %
01.02.2026 20:42 5,6 °C 5,0 °C 1,1 °C 93 % 1005,1 hPa 0,0 l/m² 0 min 0 min 0 W/m² 22,5 km/h (4 Bft) 100,00 %
01.02.2026 20:44 5,6 °C 5,0 °C 1,1 °C 93 % 1005,2 hPa 0,0 l/m² 0 min 0 min 0 W/m² 12,9 km/h (3 Bft) 100,00 %
01.02.2026 20:46 5,6 °C 4,4 °C 1,1 °C 93 % 1005,1 hPa 0,0 l/m² 0 min 0 min 0 W/m² 12,9 km/h (3 Bft) 97,22 %
01.02.2026 20:48 5,6 °C 4,4 °C 1,1 °C 93 % 1005,1 hPa 0,0 l/m² 0 min 0 min 0 W/m² 19,3 km/h (3 Bft) 100,00 %
01.02.2026 20:50 5,6 °C 4,4 °C 1,1 °C 93 % 1005,1 hPa 0,0 l/m² 0 min 0 min 0 W/m² 16,1 km/h (3 Bft) 100,00 %
01.02.2026 20:52 5,5 °C 4,4 °C 1,1 °C 93 % 1005,1 hPa 0,0 l/m² 0 min 0 min 0 W/m² 12,9 km/h (3 Bft) 100,00 %
01.02.2026 20:54 5,5 °C 4,4 °C 1,1 °C 93 % 1005,1 hPa 0,0 l/m² 0 min 0 min 0 W/m² 16,1 km/h (3 Bft) 97,92 %
01.02.2026 20:56 5,4 °C 4,4 °C 1,1 °C 93 % 1005,0 hPa 0,0 l/m² 0 min 0 min 0 W/m² 16,1 km/h (3 Bft) 97,87 %
01.02.2026 20:58 5,4 °C 4,4 °C 1,1 °C 93 % 1005,1 hPa 0,0 l/m² 0 min 0 min 0 W/m² 12,9 km/h (3 Bft) 100,00 %
01.02.2026 21:00 5,4 °C 4,4 °C 1,1 °C 93 % 1005,0 hPa 0,0 l/m² 0 min 0 min 0 W/m² 12,9 km/h (3 Bft) 100,00 %
01.02.2026 21:02 5,4 °C 4,4 °C 1,1 °C 93 % 1005,0 hPa 0,0 l/m² 0 min 0 min 0 W/m² 6,4 km/h (2 Bft) 97,87 %
01.02.2026 21:04 5,4 °C 5,0 °C 1,1 °C 93 % 1005,0 hPa 0,0 l/m² 0 min 0 min 0 W/m² 12,9 km/h (3 Bft) 97,92 %
01.02.2026 21:06 5,4 °C 5,0 °C 1,1 °C 93 % 1005,0 hPa 0,0 l/m² 0 min 0 min 0 W/m² 16,1 km/h (3 Bft) 100,00 %
01.02.2026 21:08 5,4 °C 5,0 °C 1,1 °C 93 % 1005,0 hPa 0,0 l/m² 0 min 0 min 0 W/m² 16,1 km/h (3 Bft) 100,00 %
01.02.2026 21:10 5,4 °C 5,0 °C 1,7 °C 93 % 1005,0 hPa 0,0 l/m² 0 min 0 min 0 W/m² 12,9 km/h (3 Bft) 61,70 %
01.02.2026 21:12 5,4 °C 5,0 °C 1,7 °C 93 % 1005,0 hPa 0,0 l/m² 0 min 0 min 0 W/m² 12,9 km/h (3 Bft) 89,29 %
01.02.2026 21:14 5,4 °C 5,0 °C 1,7 °C 93 % 1004,9 hPa 0,0 l/m² 0 min 0 min 0 W/m² 16,1 km/h (3 Bft) 97,56 %
01.02.2026 21:16 5,4 °C 5,0 °C 1,7 °C 93 % 1004,9 hPa 0,0 l/m² 0 min 0 min 0 W/m² 16,1 km/h (3 Bft) 95,74 %
01.02.2026 21:18 5,4 °C 5,0 °C 1,7 °C 93 % 1004,9 hPa 0,0 l/m² 0 min 0 min 0 W/m² 16,1 km/h (3 Bft) 97,87 %
01.02.2026 21:20 5,4 °C 5,0 °C 1,7 °C 93 % 1004,8 hPa 0,0 l/m² 0 min 0 min 0 W/m² 16,1 km/h (3 Bft) 97,83 %
01.02.2026 21:22 5,4 °C 5,0 °C 1,7 °C 93 % 1004,8 hPa 0,0 l/m² 0 min 0 min 0 W/m² 16,1 km/h (3 Bft) 97,87 %
01.02.2026 21:24 5,4 °C 5,0 °C 1,7 °C 93 % 1004,9 hPa 0,0 l/m² 0 min 0 min 0 W/m² 19,3 km/h (3 Bft) 97,87 %
01.02.2026 21:26 5,4 °C 5,0 °C 1,7 °C 93 % 1004,9 hPa 0,0 l/m² 0 min 0 min 0 W/m² 12,9 km/h (3 Bft) 97,87 %
01.02.2026 21:28 5,5 °C 5,0 °C 1,7 °C 93 % 1004,9 hPa 0,0 l/m² 0 min 0 min 0 W/m² 16,1 km/h (3 Bft) 98,00 %
01.02.2026 21:30 5,4 °C 5,0 °C 1,7 °C 93 % 1004,8 hPa 0,0 l/m² 0 min 0 min 0 W/m² 6,4 km/h (2 Bft) 97,87 %
01.02.2026 21:32 5,4 °C 5,0 °C 1,7 °C 93 % 1004,8 hPa 0,0 l/m² 0 min 0 min 0 W/m² 12,9 km/h (3 Bft) 93,88 %
01.02.2026 21:34 5,4 °C 5,0 °C 1,7 °C 93 % 1004,8 hPa 0,0 l/m² 0 min 0 min 0 W/m² 12,9 km/h (3 Bft) 95,74 %
01.02.2026 21:36 5,4 °C 5,0 °C 1,7 °C 93 % 1004,9 hPa 0,0 l/m² 0 min 0 min 0 W/m² 16,1 km/h (3 Bft) 93,62 %
01.02.2026 21:38 5,4 °C 5,0 °C 1,7 °C 93 % 1004,9 hPa 0,0 l/m² 0 min 0 min 0 W/m² 12,9 km/h (3 Bft) 95,74 %
01.02.2026 21:40 5,5 °C 5,0 °C 1,7 °C 93 % 1004,8 hPa 0,0 l/m² 0 min 0 min 0 W/m² 12,9 km/h (3 Bft) 93,48 %
01.02.2026 21:42 5,5 °C 5,0 °C 1,7 °C 93 % 1004,8 hPa 0,0 l/m² 0 min 0 min 0 W/m² 16,1 km/h (3 Bft) 95,74 %
01.02.2026 21:44 5,5 °C 5,0 °C 1,7 °C 93 % 1004,8 hPa 0,0 l/m² 0 min 0 min 0 W/m² 12,9 km/h (3 Bft) 93,62 %
01.02.2026 21:46 5,5 °C 5,0 °C 1,7 °C 93 % 1004,8 hPa 0,0 l/m² 0 min 0 min 0 W/m² 9,7 km/h (2 Bft) 89,36 %
01.02.2026 21:48 5,5 °C 5,0 °C 1,7 °C 93 % 1004,8 hPa 0,0 l/m² 0 min 0 min 0 W/m² 16,1 km/h (3 Bft) 93,62 %
01.02.2026 21:50 5,5 °C 5,0 °C 1,7 °C 93 % 1004,8 hPa 0,0 l/m² 0 min 0 min 0 W/m² 12,9 km/h (3 Bft) 93,62 %
01.02.2026 21:52 5,5 °C 5,0 °C 1,7 °C 93 % 1004,8 hPa 0,0 l/m² 0 min 0 min 0 W/m² 12,9 km/h (3 Bft) 93,48 %
01.02.2026 21:54 5,6 °C 5,0 °C 1,7 °C 93 % 1004,8 hPa 0,0 l/m² 0 min 0 min 0 W/m² 12,9 km/h (3 Bft) 95,74 %
01.02.2026 21:56 5,6 °C 5,0 °C 1,7 °C 93 % 1004,8 hPa 0,0 l/m² 0 min 0 min 0 W/m² 9,7 km/h (2 Bft) 95,24 %
01.02.2026 21:58 5,6 °C 5,0 °C 1,7 °C 93 % 1004,8 hPa 0,0 l/m² 0 min 0 min 0 W/m² 12,9 km/h (3 Bft) 95,74 %
01.02.2026 22:00 5,6 °C 5,0 °C 1,7 °C 93 % 1004,8 hPa 0,0 l/m² 0 min 0 min 0 W/m² 16,1 km/h (3 Bft) 95,74 %
01.02.2026 22:02 5,6 °C 5,0 °C 1,7 °C 93 % 1004,8 hPa 0,0 l/m² 0 min 0 min 0 W/m² 12,9 km/h (3 Bft) 95,83 %
01.02.2026 22:04 5,6 °C 5,0 °C 1,7 °C 93 % 1004,8 hPa 0,0 l/m² 0 min 0 min 0 W/m² 19,3 km/h (3 Bft) 95,92 %
01.02.2026 22:06 5,6 °C 5,0 °C 1,7 °C 93 % 1004,8 hPa 0,0 l/m² 0 min 0 min 0 W/m² 12,9 km/h (3 Bft) 93,62 %
01.02.2026 22:08 5,6 °C 5,0 °C 1,7 °C 93 % 1004,8 hPa 0,0 l/m² 0 min 0 min 0 W/m² 19,3 km/h (3 Bft) 95,35 %
01.02.2026 22:10 5,6 °C 5,0 °C 1,7 °C 93 % 1004,8 hPa 0,0 l/m² 0 min 0 min 0 W/m² 16,1 km/h (3 Bft) 95,92 %
01.02.2026 22:12 5,6 °C 5,0 °C 1,7 °C 93 % 1004,8 hPa 0,0 l/m² 0 min 0 min 0 W/m² 6,4 km/h (2 Bft) 91,49 %
01.02.2026 22:14 5,6 °C 5,0 °C 1,7 °C 93 % 1004,7 hPa 0,0 l/m² 0 min 0 min 0 W/m² 22,5 km/h (4 Bft) 95,92 %
01.02.2026 22:16 5,7 °C 5,0 °C 1,7 °C 93 % 1004,7 hPa 0,0 l/m² 0 min 0 min 0 W/m² 16,1 km/h (3 Bft) 95,74 %
01.02.2026 22:18 5,6 °C 5,0 °C 1,7 °C 93 % 1004,6 hPa 0,0 l/m² 0 min 0 min 0 W/m² 12,9 km/h (3 Bft) 53,49 %
01.02.2026 22:20 5,7 °C 5,0 °C 1,7 °C 93 % 1004,6 hPa 0,0 l/m² 0 min 0 min 0 W/m² 16,1 km/h (3 Bft) 100,00 %
01.02.2026 22:22 5,7 °C 5,0 °C 1,7 °C 93 % 1004,6 hPa 0,0 l/m² 0 min 0 min 0 W/m² 16,1 km/h (3 Bft) 97,87 %
01.02.2026 22:24 5,7 °C 5,0 °C 1,7 °C 93 % 1004,6 hPa 0,0 l/m² 0 min 0 min 0 W/m² 12,9 km/h (3 Bft) 100,00 %
01.02.2026 22:26 5,7 °C 5,0 °C 1,7 °C 93 % 1004,5 hPa 0,0 l/m² 0 min 0 min 0 W/m² 12,9 km/h (3 Bft) 100,00 %
01.02.2026 22:28 5,7 °C 5,0 °C 1,7 °C 93 % 1004,5 hPa 0,0 l/m² 0 min 0 min 0 W/m² 12,9 km/h (3 Bft) 100,00 %
01.02.2026 22:30 5,7 °C 5,0 °C 1,7 °C 93 % 1004,5 hPa 0,0 l/m² 0 min 0 min 0 W/m² 22,5 km/h (4 Bft) 97,87 %
01.02.2026 22:32 5,7 °C 5,0 °C 1,7 °C 93 % 1004,5 hPa 0,0 l/m² 0 min 0 min 0 W/m² 16,1 km/h (3 Bft) 100,00 %
01.02.2026 22:34 5,6 °C 5,0 °C 1,7 °C 93 % 1004,5 hPa 0,0 l/m² 0 min 0 min 0 W/m² 19,3 km/h (3 Bft) 100,00 %
01.02.2026 22:36 5,6 °C 5,0 °C 1,7 °C 93 % 1004,5 hPa 0,0 l/m² 0 min 0 min 0 W/m² 16,1 km/h (3 Bft) 100,00 %
01.02.2026 22:38 5,6 °C 5,0 °C 1,7 °C 93 % 1004,4 hPa 0,0 l/m² 0 min 0 min 0 W/m² 19,3 km/h (3 Bft) 97,87 %
01.02.2026 22:40 5,6 °C 5,0 °C 1,7 °C 93 % 1004,4 hPa 0,0 l/m² 0 min 0 min 0 W/m² 16,1 km/h (3 Bft) 100,00 %
01.02.2026 22:42 5,6 °C 5,0 °C 1,7 °C 93 % 1004,5 hPa 0,0 l/m² 0 min 0 min 0 W/m² 16,1 km/h (3 Bft) 100,00 %
01.02.2026 22:44 5,6 °C 5,0 °C 1,7 °C 93 % 1004,5 hPa 0,0 l/m² 0 min 0 min 0 W/m² 22,5 km/h (4 Bft) 100,00 %
01.02.2026 22:46 5,6 °C 5,0 °C 1,7 °C 93 % 1004,4 hPa 0,0 l/m² 0 min 0 min 0 W/m² 16,1 km/h (3 Bft) 100,00 %
01.02.2026 22:48 5,6 °C 5,0 °C 1,7 °C 93 % 1004,4 hPa 0,0 l/m² 0 min 0 min 0 W/m² 16,1 km/h (3 Bft) 97,87 %
01.02.2026 22:50 5,6 °C 5,0 °C 1,7 °C 93 % 1004,4 hPa 0,0 l/m² 0 min 0 min 0 W/m² 19,3 km/h (3 Bft) 100,00 %
01.02.2026 22:52 5,6 °C 5,0 °C 1,7 °C 93 % 1004,4 hPa 0,0 l/m² 0 min 0 min 0 W/m² 12,9 km/h (3 Bft) 100,00 %
01.02.2026 22:54 5,6 °C 5,0 °C 1,7 °C 93 % 1004,4 hPa 0,0 l/m² 0 min 0 min 0 W/m² 25,7 km/h (4 Bft) 100,00 %
01.02.2026 22:56 5,6 °C 5,0 °C 1,7 °C 93 % 1004,4 hPa 0,0 l/m² 0 min 0 min 0 W/m² 22,5 km/h (4 Bft) 97,87 %
01.02.2026 22:58 5,6 °C 5,0 °C 1,7 °C 93 % 1004,4 hPa 0,0 l/m² 0 min 0 min 0 W/m² 22,5 km/h (4 Bft) 100,00 %
01.02.2026 23:00 5,6 °C 5,0 °C 1,7 °C 93 % 1004,4 hPa 0,0 l/m² 0 min 0 min 0 W/m² 12,9 km/h (3 Bft) 100,00 %
01.02.2026 23:02 5,6 °C 5,0 °C 1,7 °C 93 % 1004,3 hPa 0,0 l/m² 0 min 0 min 0 W/m² 22,5 km/h (4 Bft) 100,00 %
01.02.2026 23:04 5,6 °C 5,0 °C 1,7 °C 93 % 1004,3 hPa 0,0 l/m² 0 min 0 min 0 W/m² 22,5 km/h (4 Bft) 100,00 %
01.02.2026 23:06 5,6 °C 5,0 °C 1,7 °C 93 % 1004,3 hPa 0,0 l/m² 0 min 0 min 0 W/m² 16,1 km/h (3 Bft) 97,87 %
01.02.2026 23:08 5,6 °C 5,0 °C 1,7 °C 93 % 1004,3 hPa 0,0 l/m² 0 min 0 min 0 W/m² 16,1 km/h (3 Bft) 100,00 %
01.02.2026 23:10 5,6 °C 5,0 °C 1,7 °C 93 % 1004,3 hPa 0,0 l/m² 0 min 0 min 0 W/m² 19,3 km/h (3 Bft) 97,87 %
01.02.2026 23:12 5,6 °C 5,0 °C 1,7 °C 93 % 1004,3 hPa 0,0 l/m² 0 min 0 min 0 W/m² 16,1 km/h (3 Bft) 100,00 %
01.02.2026 23:14 5,6 °C 5,0 °C 1,7 °C 93 % 1004,3 hPa 0,0 l/m² 0 min 0 min 0 W/m² 19,3 km/h (3 Bft) 100,00 %
01.02.2026 23:16 5,6 °C 5,0 °C 1,7 °C 93 % 1004,3 hPa 0,0 l/m² 0 min 0 min 0 W/m² 16,1 km/h (3 Bft) 97,83 %
01.02.2026 23:18 5,6 °C 5,0 °C 1,7 °C 93 % 1004,3 hPa 0,0 l/m² 0 min 0 min 0 W/m² 22,5 km/h (4 Bft) 100,00 %
01.02.2026 23:20 5,6 °C 5,0 °C 1,7 °C 93 % 1004,3 hPa 0,0 l/m² 0 min 0 min 0 W/m² 16,1 km/h (3 Bft) 100,00 %
01.02.2026 23:22 5,6 °C 5,0 °C 1,7 °C 93 % 1004,2 hPa 0,0 l/m² 0 min 0 min 0 W/m² 16,1 km/h (3 Bft) 100,00 %
01.02.2026 23:24 5,6 °C 5,0 °C 1,7 °C 93 % 1004,2 hPa 0,0 l/m² 0 min 0 min 0 W/m² 19,3 km/h (3 Bft) 100,00 %
01.02.2026 23:26 5,6 °C 5,0 °C 1,7 °C 92 % 1004,3 hPa 0,0 l/m² 0 min 0 min 0 W/m² 12,9 km/h (3 Bft) 50,00 %
01.02.2026 23:28 5,6 °C 5,0 °C 1,7 °C 92 % 1004,3 hPa 0,0 l/m² 0 min 0 min 0 W/m² 12,9 km/h (3 Bft) 97,83 %
01.02.2026 23:30 5,6 °C 5,0 °C 1,7 °C 92 % 1004,3 hPa 0,0 l/m² 0 min 0 min 0 W/m² 16,1 km/h (3 Bft) 97,87 %
01.02.2026 23:32 5,6 °C 5,0 °C 1,7 °C 92 % 1004,2 hPa 0,0 l/m² 0 min 0 min 0 W/m² 22,5 km/h (4 Bft) 100,00 %
01.02.2026 23:34 5,6 °C 5,0 °C 1,7 °C 92 % 1004,3 hPa 0,0 l/m² 0 min 0 min 0 W/m² 12,9 km/h (3 Bft) 100,00 %
01.02.2026 23:36 5,6 °C 5,0 °C 1,7 °C 92 % 1004,3 hPa 0,0 l/m² 0 min 0 min 0 W/m² 19,3 km/h (3 Bft) 97,87 %
01.02.2026 23:38 5,5 °C 5,0 °C 1,7 °C 92 % 1004,3 hPa 0,0 l/m² 0 min 0 min 0 W/m² 19,3 km/h (3 Bft) 95,74 %
01.02.2026 23:40 5,5 °C 5,0 °C 1,7 °C 92 % 1004,2 hPa 0,0 l/m² 0 min 0 min 0 W/m² 25,7 km/h (4 Bft) 95,65 %
01.02.2026 23:42 5,6 °C 5,0 °C 1,7 °C 92 % 1004,2 hPa 0,0 l/m² 0 min 0 min 0 W/m² 19,3 km/h (3 Bft) 97,87 %
01.02.2026 23:44 5,5 °C 5,0 °C 1,7 °C 92 % 1004,3 hPa 0,0 l/m² 0 min 0 min 0 W/m² 22,5 km/h (4 Bft) 97,87 %
01.02.2026 23:46 5,5 °C 5,0 °C 1,7 °C 92 % 1004,3 hPa 0,0 l/m² 0 min 0 min 0 W/m² 16,1 km/h (3 Bft) 97,87 %
01.02.2026 23:48 5,5 °C 5,0 °C 1,7 °C 92 % 1004,3 hPa 0,0 l/m² 0 min 0 min 0 W/m² 29,0 km/h (5 Bft) 95,74 %
01.02.2026 23:50 5,5 °C 5,0 °C 1,7 °C 92 % 1004,3 hPa 0,0 l/m² 0 min 0 min 0 W/m² 22,5 km/h (4 Bft) 95,74 %
01.02.2026 23:52 5,5 °C 5,0 °C 1,7 °C 92 % 1004,3 hPa 0,0 l/m² 0 min 0 min 0 W/m² 16,1 km/h (3 Bft) 95,74 %
01.02.2026 23:54 5,5 °C 5,0 °C 1,7 °C 92 % 1004,2 hPa 0,0 l/m² 0 min 0 min 0 W/m² 22,5 km/h (4 Bft) 93,62 %
01.02.2026 23:56 5,5 °C 5,0 °C 1,7 °C 92 % 1004,2 hPa 0,0 l/m² 0 min 0 min 0 W/m² 16,1 km/h (3 Bft) 95,74 %
01.02.2026 23:58 5,4 °C 5,0 °C 1,7 °C 92 % 1004,2 hPa 0,0 l/m² 0 min 0 min 0 W/m² 16,1 km/h (3 Bft) 93,75 %
_ Min-Zeit 04:50 04:20 04:08 14:28 23:22 - - - - 00:10 00:02
Minimum _ 2,6 °C 1,7 °C -1,1 °C 87 % 1004,2 hPa - - - - 3,2 km/h (1 Bft) 6,25 %
_ Max-Zeit 14:42 12:28 12:46 05:52 02:52 00:00 12:12 00:00 12:28 11:42 00:00
Maximum _ 8,2 °C 11,7 °C 4,4 °C 97 % 1008,3 hPa 0,0 l/m² 4 min 0 min 461 W/m² 29,0 km/h
SO (5 Bft)
100,00 %
Durchschnitt _ 5,2 °C 4,9 °C 1,4 °C 93 % 1006,7 hPa #0,0 l/m² #2:30 h #0 min. 114 W/m² 15,0 km/h (3 Bft) 96,46 %
© 2026 W. Hausmann